Time,TemperatureF,DewpointF,PressureIn,WindDirection,WindDirectionDegrees,WindSpeedMPH,WindSpeedGustMPH,Humidity,HourlyPrecipIn,Conditions,Clouds,dailyrainin,SolarRadiationWatts/m^2,SoftwareType,DateUTC
2013-01-22 00:01:00,5.1,-1.9,30.36,WNW,284,6.6,6.6,72,0.00,,,0.00,0.00,VWS V14.01,2013-01-22 06:01:00,
2013-01-22 00:02:00,5.1,-1.9,30.36,West,280,5.5,6.6,72,0.00,,,0.00,0.00,VWS V14.01,2013-01-22 06:02:00,
2013-01-22 00:04:00,5.1,-1.9,30.37,WNW,291,6.6,6.6,72,0.00,,,0.00,0.00,VWS V14.01,2013-01-22 06:04:00,
2013-01-22 00:07:00,5.0,-1.8,30.36,WNW,289,5.5,5.5,73,0.00,,,0.00,0.00,VWS V14.01,2013-01-22 06:07:00,
2013-01-22 00:08:00,5.0,-1.8,30.37,West,268,2.2,11.0,73,0.00,,,0.00,0.00,VWS V14.01,2013-01-22 06:08:00,
2013-01-22 00:10:00,5.0,-1.8,30.36,WNW,287,5.5,9.9,73,0.00,,,0.00,0.00,VWS V14.01,2013-01-22 06:10:00,
2013-01-22 00:12:00,5.1,-1.6,30.36,WNW,288,5.5,8.8,73,0.00,,,0.00,0.00,VWS V14.01,2013-01-22 06:12:00,
2013-01-22 00:13:00,5.1,-1.6,30.36,WNW,293,5.5,8.8,73,0.00,,,0.00,0.00,VWS V14.01,2013-01-22 06:13:00,
2013-01-22 00:14:00,5.1,-1.4,30.36,West,275,5.5,9.9,74,0.00,,,0.00,0.00,VWS V14.01,2013-01-22 06:14:00,
2013-01-22 00:15:00,5.2,-1.3,30.36,West,270,5.5,8.8,74,0.00,,,0.00,0.00,VWS V14.01,2013-01-22 06:15:00,
2013-01-22 00:18:00,5.2,-1.0,30.36,West,281,5.5,7.7,75,0.00,,,0.00,0.00,VWS V14.01,2013-01-22 06:18:00,
2013-01-22 00:19:00,5.3,-0.9,30.36,West,275,6.6,9.9,75,0.00,,,0.00,0.00,VWS V14.01,2013-01-22 06:19:00,
2013-01-22 00:20:00,5.3,-0.9,30.36,WNW,294,8.8,11.0,75,0.00,,,0.00,0.00,VWS V14.01,2013-01-22 06:20:00,
2013-01-22 00:23:00,5.3,-0.6,30.36,West,281,3.3,6.6,76,0.00,,,0.00,0.00,VWS V14.01,2013-01-22 06:23:00,
2013-01-22 00:24:00,5.3,-0.6,30.36,West,269,5.5,6.6,76,0.00,,,0.00,0.00,VWS V14.01,2013-01-22 06:24:00,
2013-01-22 00:25:00,5.4,-0.5,30.36,WNW,293,5.5,6.6,76,0.00,,,0.00,0.00,VWS V14.01,2013-01-22 06:25:00,
2013-01-22 00:26:00,5.4,-0.5,30.36,West,266,3.3,5.5,76,0.00,,,0.00,0.00,VWS V14.01,2013-01-22 06:26:00,
2013-01-22 00:29:00,5.3,-0.3,30.36,West,274,5.5,7.7,77,0.00,,,0.00,0.00,VWS V14.01,2013-01-22 06:29:00,
2013-01-22 00:30:00,5.3,-0.3,30.36,WSW,258,11.0,11.0,77,0.00,,,0.00,0.00,VWS V14.01,2013-01-22 06:30:00,
2013-01-22 00:31:00,5.3,-0.3,30.36,WNW,296,8.8,11.0,77,0.00,,,0.00,0.00,VWS V14.01,2013-01-22 06:31:00,
2013-01-22 00:34:00,5.3,-0.6,30.36,WSW,258,6.6,7.7,76,0.00,,,0.00,0.00,VWS V14.01,2013-01-22 06:34:00,
2013-01-22 00:35:00,5.4,-0.5,30.36,WNW,287,7.7,9.9,76,0.00,,,0.00,0.00,VWS V14.01,2013-01-22 06:35:00,
2013-01-22 00:36:00,5.4,-0.5,30.36,West,276,9.9,9.9,76,0.00,,,0.00,0.00,VWS V14.01,2013-01-22 06:36:00,
2013-01-22 00:38:00,5.4,-0.2,30.36,WNW,291,6.6,8.8,77,0.00,,,0.00,0.00,VWS V14.01,2013-01-22 06:38:00,
2013-01-22 00:39:00,5.4,-0.2,30.36,WNW,291,9.9,13.2,77,0.00,,,0.00,0.00,VWS V14.01,2013-01-22 06:39:00,
2013-01-22 00:40:00,5.3,-0.3,30.36,WNW,293,7.7,9.9,77,0.00,,,0.00,0.00,VWS V14.01,2013-01-22 06:40:00,
2013-01-22 00:41:00,5.3,-0.3,30.36,West,281,6.6,11.0,77,0.00,,,0.00,0.00,VWS V14.01,2013-01-22 06:41:00,
2013-01-22 00:44:00,5.3,-0.3,30.36,WNW,301,5.5,6.6,77,0.00,,,0.00,0.00,VWS V14.01,2013-01-22 06:44:00,
2013-01-22 00:46:00,5.3,-0.3,30.36,WNW,295,8.8,12.1,77,0.00,,,0.00,0.00,VWS V14.01,2013-01-22 06:46:00,
2013-01-22 00:47:00,5.3,-0.3,30.36,WNW,289,7.7,9.9,77,0.00,,,0.00,0.00,VWS V14.01,2013-01-22 06:47:00,
2013-01-22 00:49:00,5.2,-0.4,30.36,West,260,7.7,11.0,77,0.00,,,0.00,0.00,VWS V14.01,2013-01-22 06:49:00,
2013-01-22 00:52:00,5.1,-0.5,30.36,West,273,9.9,11.0,77,0.00,,,0.00,0.00,VWS V14.01,2013-01-22 06:52:00,
2013-01-22 00:53:00,5.1,-0.5,30.36,WNW,285,11.0,11.0,77,0.00,,,0.00,0.00,VWS V14.01,2013-01-22 06:53:00,
2013-01-22 00:54:00,5.1,-0.5,30.36,West,278,6.6,6.6,77,0.00,,,0.00,0.00,VWS V14.01,2013-01-22 06:54:00,
2013-01-22 00:57:00,5.1,-0.5,30.36,WNW,284,8.8,13.2,77,0.00,,,0.00,0.00,VWS V14.01,2013-01-22 06:57:00,
2013-01-22 00:58:00,5.1,-0.5,30.36,West,276,9.9,12.1,77,0.00,,,0.00,0.00,VWS V14.01,2013-01-22 06:58:00,
2013-01-22 01:00:00,5.1,-0.5,30.36,WNW,298,8.8,9.9,77,0.00,,,0.00,0.00,VWS V14.01,2013-01-22 07:00:00,
2013-01-22 01:02:00,5.1,-0.5,30.36,WNW,293,11.0,12.1,77,0.00,,,0.00,0.00,VWS V14.01,2013-01-22 07:02:00,
2013-01-22 01:03:00,5.1,-0.5,30.36,West,277,8.8,13.2,77,0.00,,,0.00,0.00,VWS V14.01,2013-01-22 07:03:00,
2013-01-22 01:06:00,5.1,-0.8,30.36,West,280,6.6,9.9,76,0.00,,,0.00,0.00,VWS V14.01,2013-01-22 07:06:00,
2013-01-22 01:07:00,5.1,-0.8,30.36,West,270,7.7,8.8,76,0.00,,,0.00,0.00,VWS V14.01,2013-01-22 07:07:00,
2013-01-22 01:08:00,5.1,-0.8,30.36,WNW,295,14.3,14.3,76,0.00,,,0.00,0.00,VWS V14.01,2013-01-22 07:08:00,
2013-01-22 01:11:00,5.1,-0.8,30.36,WNW,293,4.4,11.0,76,0.00,,,0.00,0.00,VWS V14.01,2013-01-22 07:11:00,
2013-01-22 01:13:00,5.1,-0.8,30.36,WNW,301,6.6,15.4,76,0.00,,,0.00,0.00,VWS V14.01,2013-01-22 07:13:00,
2013-01-22 01:14:00,5.1,-0.8,30.36,NW,306,7.7,7.7,76,0.00,,,0.00,0.00,VWS V14.01,2013-01-22 07:14:00,
2013-01-22 01:17:00,5.1,-1.1,30.36,WNW,292,5.5,7.7,75,0.00,,,0.00,0.00,VWS V14.01,2013-01-22 07:17:00,
2013-01-22 01:19:00,5.1,-0.8,30.37,WNW,290,6.6,7.7,76,0.00,,,0.00,0.00,VWS V14.01,2013-01-22 07:19:00,
2013-01-22 01:22:00,5.1,-0.5,30.37,WNW,301,5.5,5.5,77,0.00,,,0.00,0.00,VWS V14.01,2013-01-22 07:22:00,
2013-01-22 01:24:00,5.1,-0.5,30.37,WNW,285,3.3,6.6,77,0.00,,,0.00,0.00,VWS V14.01,2013-01-22 07:24:00,
2013-01-22 01:25:00,5.0,-0.6,30.37,West,269,5.5,5.5,77,0.00,,,0.00,0.00,VWS V14.01,2013-01-22 07:25:00,
2013-01-22 01:28:00,5.0,-0.3,30.37,WNW,285,3.3,7.7,78,0.00,,,0.00,0.00,VWS V14.01,2013-01-22 07:28:00,
2013-01-22 01:29:00,5.0,-0.3,30.37,West,273,6.6,6.6,78,0.00,,,0.00,0.00,VWS V14.01,2013-01-22 07:29:00,
2013-01-22 01:30:00,5.0,-0.3,30.37,West,269,4.4,6.6,78,0.00,,,0.00,0.00,VWS V14.01,2013-01-22 07:30:00,
2013-01-22 01:31:00,5.0,-0.3,30.37,WNW,303,6.6,12.1,78,0.00,,,0.00,0.00,VWS V14.01,2013-01-22 07:31:00,
2013-01-22 01:34:00,5.1,-0.5,30.37,NW,310,7.7,11.0,77,0.00,,,0.00,0.00,VWS V14.01,2013-01-22 07:34:00,
2013-01-22 01:35:00,5.2,-0.4,30.37,West,273,5.5,8.8,77,0.00,,,0.00,0.00,VWS V14.01,2013-01-22 07:35:00,
2013-01-22 01:36:00,5.2,-0.4,30.37,West,279,6.6,7.7,77,0.00,,,0.00,0.00,VWS V14.01,2013-01-22 07:36:00,
2013-01-22 01:39:00,5.3,-0.6,30.37,West,277,5.5,5.5,76,0.00,,,0.00,0.00,VWS V14.01,2013-01-22 07:39:00,
2013-01-22 01:41:00,5.3,-0.6,30.37,WNW,303,11.0,11.0,76,0.00,,,0.00,0.00,VWS V14.01,2013-01-22 07:41:00,
2013-01-22 01:42:00,5.3,-0.6,30.37,NW,324,13.2,13.2,76,0.00,,,0.00,0.00,VWS V14.01,2013-01-22 07:42:00,
2013-01-22 01:44:00,5.3,-0.6,30.37,West,264,9.9,11.0,76,0.00,,,0.00,0.00,VWS V14.01,2013-01-22 07:44:00,
2013-01-22 01:46:00,5.3,-0.6,30.37,West,273,5.5,7.7,76,0.00,,,0.00,0.00,VWS V14.01,2013-01-22 07:46:00,
2013-01-22 01:47:00,5.3,-0.6,30.37,NW,314,6.6,6.6,76,0.00,,,0.00,0.00,VWS V14.01,2013-01-22 07:47:00,
2013-01-22 01:49:00,5.2,-0.7,30.37,WSW,256,5.5,6.6,76,0.00,,,0.00,0.00,VWS V14.01,2013-01-22 07:49:00,
2013-01-22 01:51:00,5.2,-0.7,30.37,NW,306,6.6,9.9,76,0.00,,,0.00,0.00,VWS V14.01,2013-01-22 07:51:00,
2013-01-22 01:52:00,5.2,-0.7,30.37,West,271,5.5,9.9,76,0.00,,,0.00,0.00,VWS V14.01,2013-01-22 07:52:00,
2013-01-22 01:53:00,5.1,-0.8,30.37,West,270,7.7,11.0,76,0.00,,,0.00,0.00,VWS V14.01,2013-01-22 07:53:00,
2013-01-22 01:54:00,5.1,-0.8,30.37,WNW,287,6.6,7.7,76,0.00,,,0.00,0.00,VWS V14.01,2013-01-22 07:54:00,
2013-01-22 01:57:00,5.1,-0.8,30.37,WNW,291,9.9,9.9,76,0.00,,,0.00,0.00,VWS V14.01,2013-01-22 07:57:00,
2013-01-22 01:59:00,5.1,-0.8,30.37,WNW,283,5.5,8.8,76,0.00,,,0.00,0.00,VWS V14.01,2013-01-22 07:59:00,
2013-01-22 02:00:00,5.0,-0.9,30.37,NW,312,6.6,6.6,76,0.00,,,0.00,0.00,VWS V14.01,2013-01-22 08:00:00,
2013-01-22 02:02:00,5.0,-0.9,30.38,NW,312,7.7,7.7,76,0.00,,,0.00,0.00,VWS V14.01,2013-01-22 08:02:00,
2013-01-22 02:03:00,5.0,-0.9,30.38,West,277,4.4,7.7,76,0.00,,,0.00,0.00,VWS V14.01,2013-01-22 08:03:00,
2013-01-22 02:04:00,5.0,-0.9,30.38,West,270,6.6,12.1,76,0.00,,,0.00,0.00,VWS V14.01,2013-01-22 08:04:00,
2013-01-22 02:05:00,5.0,-0.9,30.38,WNW,303,7.7,7.7,76,0.00,,,0.00,0.00,VWS V14.01,2013-01-22 08:05:00,
2013-01-22 02:08:00,5.0,-0.9,30.38,West,275,7.7,11.0,76,0.00,,,0.00,0.00,VWS V14.01,2013-01-22 08:08:00,
2013-01-22 02:09:00,4.9,-1.0,30.38,WNW,285,4.4,7.7,76,0.00,,,0.00,0.00,VWS V14.01,2013-01-22 08:09:00,
2013-01-22 02:11:00,4.9,-1.0,30.38,NW,316,6.6,11.0,76,0.00,,,0.00,0.00,VWS V14.01,2013-01-22 08:11:00,
2013-01-22 02:13:00,4.9,-1.0,30.38,West,259,5.5,9.9,76,0.00,,,0.00,0.00,VWS V14.01,2013-01-22 08:13:00,
2013-01-22 02:14:00,4.8,-1.1,30.38,West,276,7.7,9.9,76,0.00,,,0.00,0.00,VWS V14.01,2013-01-22 08:14:00,
2013-01-22 02:17:00,4.8,-0.8,30.38,WNW,295,7.7,9.9,77,0.00,,,0.00,0.00,VWS V14.01,2013-01-22 08:17:00,
2013-01-22 02:18:00,4.7,-0.9,30.38,West,272,5.5,8.8,77,0.00,,,0.00,0.00,VWS V14.01,2013-01-22 08:18:00,
2013-01-22 02:19:00,4.8,-0.8,30.38,WSW,249,7.7,7.7,77,0.00,,,0.00,0.00,VWS V14.01,2013-01-22 08:19:00,
2013-01-22 02:23:00,4.8,-0.8,30.38,NW,307,4.4,7.7,77,0.00,,,0.00,0.00,VWS V14.01,2013-01-22 08:23:00,
2013-01-22 02:24:00,4.8,-0.8,30.38,WNW,289,5.5,5.5,77,0.00,,,0.00,0.00,VWS V14.01,2013-01-22 08:24:00,
2013-01-22 02:25:00,4.8,-0.8,30.38,WNW,302,5.5,5.5,77,0.00,,,0.00,0.00,VWS V14.01,2013-01-22 08:25:00,
2013-01-22 02:28:00,4.7,-0.9,30.38,NW,313,9.9,9.9,77,0.00,,,0.00,0.00,VWS V14.01,2013-01-22 08:28:00,
2013-01-22 02:30:00,4.7,-0.9,30.38,WNW,299,5.5,11.0,77,0.00,,,0.00,0.00,VWS V14.01,2013-01-22 08:30:00,
2013-01-22 02:34:00,4.5,-1.1,30.38,WNW,293,7.7,7.7,77,0.00,,,0.00,0.00,VWS V14.01,2013-01-22 08:34:00,
2013-01-22 02:35:00,4.5,-1.1,30.38,West,271,8.8,11.0,77,0.00,,,0.00,0.00,VWS V14.01,2013-01-22 08:35:00,
2013-01-22 02:36:00,4.5,-1.1,30.38,WNW,292,6.6,8.8,77,0.00,,,0.00,0.00,VWS V14.01,2013-01-22 08:36:00,
2013-01-22 02:39:00,4.4,-1.2,30.38,WNW,290,5.5,8.8,77,0.00,,,0.00,0.00,VWS V14.01,2013-01-22 08:39:00,
2013-01-22 02:40:00,4.4,-1.2,30.38,NW,305,7.7,8.8,77,0.00,,,0.00,0.00,VWS V14.01,2013-01-22 08:40:00,
2013-01-22 02:41:00,4.4,-1.2,30.38,West,280,6.6,8.8,77,0.00,,,0.00,0.00,VWS V14.01,2013-01-22 08:41:00,
2013-01-22 02:45:00,4.3,-1.0,30.39,West,277,5.5,6.6,78,0.00,,,0.00,0.00,VWS V14.01,2013-01-22 08:45:00,
2013-01-22 02:46:00,4.3,-1.0,30.39,NW,305,5.5,6.6,78,0.00,,,0.00,0.00,VWS V14.01,2013-01-22 08:46:00,
2013-01-22 02:47:00,4.4,-0.7,30.39,NW,306,6.6,6.6,79,0.00,,,0.00,0.00,VWS V14.01,2013-01-22 08:47:00,
2013-01-22 02:50:00,4.3,-0.8,30.39,WNW,284,6.6,7.7,79,0.00,,,0.00,0.00,VWS V14.01,2013-01-22 08:50:00,
2013-01-22 02:51:00,4.2,-0.9,30.39,WNW,285,5.5,7.7,79,0.00,,,0.00,0.00,VWS V14.01,2013-01-22 08:51:00,
2013-01-22 02:52:00,4.2,-0.9,30.39,West,271,3.3,6.6,79,0.00,,,0.00,0.00,VWS V14.01,2013-01-22 08:52:00,
2013-01-22 02:55:00,4.1,-0.9,30.39,NW,312,6.6,6.6,79,0.00,,,0.00,0.00,VWS V14.01,2013-01-22 08:55:00,
2013-01-22 02:56:00,4.1,-0.9,30.39,West,271,5.5,5.5,79,0.00,,,0.00,0.00,VWS V14.01,2013-01-22 08:56:00,
2013-01-22 02:57:00,4.1,-0.9,30.39,West,276,6.6,6.6,79,0.00,,,0.00,0.00,VWS V14.01,2013-01-22 08:57:00,
2013-01-22 03:01:00,4.0,-1.0,30.39,WNW,293,2.2,3.3,79,0.00,,,0.00,0.00,VWS V14.01,2013-01-22 09:01:00,
2013-01-22 03:02:00,3.9,-1.1,30.39,West,266,6.6,6.6,79,0.00,,,0.00,0.00,VWS V14.01,2013-01-22 09:02:00,
2013-01-22 03:03:00,3.9,-1.1,30.39,West,267,6.6,6.6,79,0.00,,,0.00,0.00,VWS V14.01,2013-01-22 09:03:00,
2013-01-22 03:06:00,3.8,-1.2,30.39,West,280,3.3,4.4,79,0.00,,,0.00,0.00,VWS V14.01,2013-01-22 09:06:00,
2013-01-22 03:07:00,3.8,-1.2,30.39,West,281,3.3,4.4,79,0.00,,,0.00,0.00,VWS V14.01,2013-01-22 09:07:00,
2013-01-22 03:08:00,3.8,-1.2,30.39,West,278,3.3,4.4,79,0.00,,,0.00,0.00,VWS V14.01,2013-01-22 09:08:00,
2013-01-22 03:12:00,3.7,-1.3,30.39,West,270,6.6,6.6,79,0.00,,,0.00,0.00,VWS V14.01,2013-01-22 09:12:00,
2013-01-22 03:13:00,3.7,-1.3,30.39,West,270,4.4,6.6,79,0.00,,,0.00,0.00,VWS V14.01,2013-01-22 09:13:00,
2013-01-22 03:17:00,3.6,-1.4,30.40,West,281,6.6,8.8,79,0.00,,,0.00,0.00,VWS V14.01,2013-01-22 09:17:00,
2013-01-22 03:18:00,3.6,-1.4,30.40,West,276,5.5,8.8,79,0.00,,,0.00,0.00,VWS V14.01,2013-01-22 09:18:00,
2013-01-22 03:19:00,3.6,-1.4,30.40,West,281,4.4,5.5,79,0.00,,,0.00,0.00,VWS V14.01,2013-01-22 09:19:00,
2013-01-22 03:22:00,3.6,-1.4,30.40,WNW,287,3.3,4.4,79,0.00,,,0.00,0.00,VWS V14.01,2013-01-22 09:22:00,
2013-01-22 03:23:00,3.6,-1.4,30.40,West,278,4.4,5.5,79,0.00,,,0.00,0.00,VWS V14.01,2013-01-22 09:23:00,
2013-01-22 03:24:00,3.6,-1.4,30.40,West,274,4.4,5.5,79,0.00,,,0.00,0.00,VWS V14.01,2013-01-22 09:24:00,
2013-01-22 03:28:00,3.5,-1.5,30.40,WNW,295,4.4,7.7,79,0.00,,,0.00,0.00,VWS V14.01,2013-01-22 09:28:00,
2013-01-22 03:29:00,3.5,-1.5,30.40,WNW,294,4.4,4.4,79,0.00,,,0.00,0.00,VWS V14.01,2013-01-22 09:29:00,
2013-01-22 03:34:00,3.3,-1.5,30.39,West,266,5.5,11.0,80,0.00,,,0.00,0.00,VWS V14.01,2013-01-22 09:34:00,
2013-01-22 03:35:00,3.3,-1.5,30.40,NW,309,4.4,8.8,80,0.00,,,0.00,0.00,VWS V14.01,2013-01-22 09:35:00,
2013-01-22 03:39:00,3.1,-1.9,30.40,WNW,299,4.4,5.5,79,0.00,,,0.00,0.00,VWS V14.01,2013-01-22 09:39:00,
2013-01-22 03:40:00,3.1,-1.9,30.40,WNW,299,3.3,5.5,79,0.00,,,0.00,0.00,VWS V14.01,2013-01-22 09:40:00,
2013-01-22 03:45:00,2.9,-2.1,30.39,NW,320,5.5,5.5,79,0.00,,,0.00,0.00,VWS V14.01,2013-01-22 09:45:00,
2013-01-22 03:46:00,2.9,-2.1,30.39,NW,307,6.6,6.6,79,0.00,,,0.00,0.00,VWS V14.01,2013-01-22 09:46:00,
2013-01-22 03:50:00,2.8,-2.2,30.39,WNW,295,4.4,6.6,79,0.00,,,0.00,0.00,VWS V14.01,2013-01-22 09:50:00,
2013-01-22 03:52:00,2.8,-2.5,30.39,WNW,288,9.9,9.9,78,0.00,,,0.00,0.00,VWS V14.01,2013-01-22 09:52:00,
2013-01-22 03:55:00,2.7,-2.6,30.39,WNW,284,4.4,6.6,78,0.00,,,0.00,0.00,VWS V14.01,2013-01-22 09:55:00,
2013-01-22 03:56:00,2.7,-2.9,30.39,NW,318,6.6,6.6,77,0.00,,,0.00,0.00,VWS V14.01,2013-01-22 09:56:00,
2013-01-22 03:57:00,2.7,-2.9,30.39,WNW,303,7.7,8.8,77,0.00,,,0.00,0.00,VWS V14.01,2013-01-22 09:57:00,
2013-01-22 04:00:00,2.7,-2.9,30.39,WNW,285,5.5,6.6,77,0.00,,,0.00,0.00,VWS V14.01,2013-01-22 10:00:00,
2013-01-22 04:01:00,2.7,-2.9,30.39,WNW,293,4.4,6.6,77,0.00,,,0.00,0.00,VWS V14.01,2013-01-22 10:01:00,
2013-01-22 04:02:00,2.7,-2.9,30.39,WNW,298,5.5,7.7,77,0.00,,,0.00,0.00,VWS V14.01,2013-01-22 10:02:00,
2013-01-22 04:06:00,2.7,-3.1,30.40,WNW,297,8.8,8.8,76,0.00,,,0.00,0.00,VWS V14.01,2013-01-22 10:06:00,
2013-01-22 04:07:00,2.7,-2.9,30.40,NW,307,6.6,8.8,77,0.00,,,0.00,0.00,VWS V14.01,2013-01-22 10:07:00,
2013-01-22 04:08:00,2.7,-2.9,30.40,WNW,299,5.5,5.5,77,0.00,,,0.00,0.00,VWS V14.01,2013-01-22 10:08:00,
2013-01-22 04:11:00,2.7,-3.1,30.40,WNW,293,3.3,4.4,76,0.00,,,0.00,0.00,VWS V14.01,2013-01-22 10:11:00,
2013-01-22 04:12:00,2.7,-3.1,30.40,WNW,293,3.3,4.4,76,0.00,,,0.00,0.00,VWS V14.01,2013-01-22 10:12:00,
2013-01-22 04:13:00,2.7,-3.1,30.40,WNW,298,4.4,4.4,76,0.00,,,0.00,0.00,VWS V14.01,2013-01-22 10:13:00,
2013-01-22 04:16:00,2.6,-3.2,30.40,WNW,303,5.5,5.5,76,0.00,,,0.00,0.00,VWS V14.01,2013-01-22 10:16:00,
2013-01-22 04:17:00,2.6,-3.0,30.40,WNW,298,3.3,5.5,77,0.00,,,0.00,0.00,VWS V14.01,2013-01-22 10:17:00,
2013-01-22 04:18:00,2.6,-3.0,30.40,WNW,291,5.5,6.6,77,0.00,,,0.00,0.00,VWS V14.01,2013-01-22 10:18:00,
2013-01-22 04:19:00,2.6,-3.0,30.40,WNW,285,5.5,6.6,77,0.00,,,0.00,0.00,VWS V14.01,2013-01-22 10:19:00,
2013-01-22 04:22:00,2.5,-3.0,30.40,WNW,292,5.5,5.5,77,0.00,,,0.00,0.00,VWS V14.01,2013-01-22 10:22:00,
2013-01-22 04:23:00,2.5,-3.0,30.40,WNW,297,4.4,5.5,77,0.00,,,0.00,0.00,VWS V14.01,2013-01-22 10:23:00,
2013-01-22 04:25:00,2.4,-3.2,30.40,WNW,302,4.4,5.5,77,0.00,,,0.00,0.00,VWS V14.01,2013-01-22 10:25:00,
2013-01-22 04:27:00,2.4,-3.2,30.40,WNW,287,3.3,8.8,77,0.00,,,0.00,0.00,VWS V14.01,2013-01-22 10:27:00,
2013-01-22 04:28:00,2.4,-3.2,30.40,NW,322,3.3,5.5,77,0.00,,,0.00,0.00,VWS V14.01,2013-01-22 10:28:00,
2013-01-22 04:29:00,2.4,-3.2,30.40,NW,319,5.5,5.5,77,0.00,,,0.00,0.00,VWS V14.01,2013-01-22 10:29:00,
2013-01-22 04:30:00,2.3,-3.2,30.40,WNW,293,5.5,8.8,77,0.00,,,0.00,0.00,VWS V14.01,2013-01-22 10:30:00,
2013-01-22 04:32:00,2.3,-3.2,30.40,WNW,291,5.5,5.5,77,0.00,,,0.00,0.00,VWS V14.01,2013-01-22 10:32:00,
2013-01-22 04:34:00,2.3,-3.2,30.40,West,280,5.5,6.6,77,0.00,,,0.00,0.00,VWS V14.01,2013-01-22 10:34:00,
2013-01-22 04:35:00,2.3,-3.5,30.40,NW,315,4.4,5.5,76,0.00,,,0.00,0.00,VWS V14.01,2013-01-22 10:35:00,
2013-01-22 04:37:00,2.2,-3.6,30.40,NW,313,8.8,8.8,76,0.00,,,0.00,0.00,VWS V14.01,2013-01-22 10:37:00,
2013-01-22 04:40:00,2.1,-3.7,30.40,NW,309,4.4,7.7,76,0.00,,,0.00,0.00,VWS V14.01,2013-01-22 10:40:00,
2013-01-22 04:43:00,2.1,-3.4,30.41,WNW,292,7.7,7.7,77,0.00,,,0.00,0.00,VWS V14.01,2013-01-22 10:43:00,
2013-01-22 04:45:00,2.1,-3.4,30.41,WNW,284,5.5,8.8,77,0.00,,,0.00,0.00,VWS V14.01,2013-01-22 10:45:00,
2013-01-22 04:47:00,2.1,-3.4,30.41,WNW,298,9.9,9.9,77,0.00,,,0.00,0.00,VWS V14.01,2013-01-22 10:47:00,
2013-01-22 04:48:00,2.0,-3.5,30.41,WNW,293,7.7,9.9,77,0.00,,,0.00,0.00,VWS V14.01,2013-01-22 10:48:00,
2013-01-22 04:50:00,2.0,-3.5,30.41,WNW,283,7.7,7.7,77,0.00,,,0.00,0.00,VWS V14.01,2013-01-22 10:50:00,
2013-01-22 04:51:00,2.0,-3.5,30.41,WNW,300,3.3,7.7,77,0.00,,,0.00,0.00,VWS V14.01,2013-01-22 10:51:00,
2013-01-22 04:52:00,2.0,-3.5,30.41,WNW,296,7.7,12.1,77,0.00,,,0.00,0.00,VWS V14.01,2013-01-22 10:52:00,
2013-01-22 04:53:00,2.0,-3.5,30.41,WNW,295,6.6,12.1,77,0.00,,,0.00,0.00,VWS V14.01,2013-01-22 10:53:00,
2013-01-22 04:56:00,2.0,-3.8,30.41,NW,309,7.7,7.7,76,0.00,,,0.00,0.00,VWS V14.01,2013-01-22 10:56:00,
2013-01-22 04:58:00,2.0,-3.8,30.41,WNW,298,9.9,11.0,76,0.00,,,0.00,0.00,VWS V14.01,2013-01-22 10:58:00,
2013-01-22 05:01:00,2.0,-3.8,30.41,WNW,288,4.4,5.5,76,0.00,,,0.00,0.00,VWS V14.01,2013-01-22 11:01:00,
2013-01-22 05:02:00,2.0,-3.8,30.41,WNW,296,6.6,9.9,76,0.00,,,0.00,0.00,VWS V14.01,2013-01-22 11:02:00,
2013-01-22 05:03:00,2.0,-3.8,30.41,WNW,294,7.7,9.9,76,0.00,,,0.00,0.00,VWS V14.01,2013-01-22 11:03:00,
2013-01-22 05:06:00,2.0,-3.8,30.41,WNW,301,6.6,6.6,76,0.00,,,0.00,0.00,VWS V14.01,2013-01-22 11:06:00,
2013-01-22 05:08:00,2.0,-3.8,30.41,WNW,283,5.5,9.9,76,0.00,,,0.00,0.00,VWS V14.01,2013-01-22 11:08:00,
2013-01-22 05:12:00,2.0,-3.8,30.41,NW,313,6.6,8.8,76,0.00,,,0.00,0.00,VWS V14.01,2013-01-22 11:12:00,
2013-01-22 05:13:00,2.0,-3.8,30.41,WNW,283,4.4,9.9,76,0.00,,,0.00,0.00,VWS V14.01,2013-01-22 11:13:00,
2013-01-22 05:14:00,2.0,-3.8,30.41,WNW,290,4.4,6.6,76,0.00,,,0.00,0.00,VWS V14.01,2013-01-22 11:14:00,
2013-01-22 05:17:00,2.0,-4.1,30.41,WNW,292,4.4,11.0,75,0.00,,,0.00,0.00,VWS V14.01,2013-01-22 11:17:00,
2013-01-22 05:18:00,2.0,-4.1,30.41,WNW,299,6.6,9.9,75,0.00,,,0.00,0.00,VWS V14.01,2013-01-22 11:18:00,
2013-01-22 05:19:00,2.0,-4.1,30.41,NW,311,6.6,11.0,75,0.00,,,0.00,0.00,VWS V14.01,2013-01-22 11:19:00,
2013-01-22 05:23:00,2.0,-4.1,30.42,WNW,298,6.6,9.9,75,0.00,,,0.00,0.00,VWS V14.01,2013-01-22 11:23:00,
2013-01-22 05:24:00,2.0,-4.1,30.41,WNW,287,5.5,9.9,75,0.00,,,0.00,0.00,VWS V14.01,2013-01-22 11:24:00,
2013-01-22 05:25:00,1.9,-4.2,30.42,WNW,287,8.8,8.8,75,0.00,,,0.00,0.00,VWS V14.01,2013-01-22 11:25:00,
2013-01-22 05:28:00,1.9,-4.2,30.42,WNW,298,9.9,11.0,75,0.00,,,0.00,0.00,VWS V14.01,2013-01-22 11:28:00,
2013-01-22 05:29:00,1.9,-4.2,30.41,NW,308,7.7,9.9,75,0.00,,,0.00,0.00,VWS V14.01,2013-01-22 11:29:00,
2013-01-22 05:30:00,1.9,-4.2,30.42,NW,311,6.6,7.7,75,0.00,,,0.00,0.00,VWS V14.01,2013-01-22 11:30:00,
2013-01-22 05:33:00,1.8,-4.3,30.41,WNW,302,7.7,8.8,75,0.00,,,0.00,0.00,VWS V14.01,2013-01-22 11:33:00,
2013-01-22 05:34:00,1.8,-4.3,30.42,West,274,3.3,5.5,75,0.00,,,0.00,0.00,VWS V14.01,2013-01-22 11:34:00,
2013-01-22 05:35:00,1.9,-4.2,30.42,WNW,302,7.7,8.8,75,0.00,,,0.00,0.00,VWS V14.01,2013-01-22 11:35:00,
2013-01-22 05:38:00,1.8,-4.3,30.41,NW,306,4.4,7.7,75,0.00,,,0.00,0.00,VWS V14.01,2013-01-22 11:38:00,
2013-01-22 05:40:00,1.8,-4.3,30.42,WNW,289,4.4,7.7,75,0.00,,,0.00,0.00,VWS V14.01,2013-01-22 11:40:00,
2013-01-22 05:41:00,1.8,-4.3,30.42,WNW,286,6.6,9.9,75,0.00,,,0.00,0.00,VWS V14.01,2013-01-22 11:41:00,
2013-01-22 05:43:00,1.8,-4.3,30.42,WNW,299,3.3,4.4,75,0.00,,,0.00,0.00,VWS V14.01,2013-01-22 11:43:00,
2013-01-22 05:45:00,1.7,-4.4,30.42,WNW,284,4.4,4.4,75,0.00,,,0.00,0.00,VWS V14.01,2013-01-22 11:45:00,
2013-01-22 05:46:00,1.7,-4.4,30.42,NW,305,2.2,6.6,75,0.00,,,0.00,0.00,VWS V14.01,2013-01-22 11:46:00,
2013-01-22 05:50:00,1.7,-4.1,30.42,WNW,283,1.1,4.4,76,0.00,,,0.00,0.00,VWS V14.01,2013-01-22 11:50:00,
2013-01-22 05:51:00,1.7,-4.1,30.42,WNW,290,5.5,5.5,76,0.00,,,0.00,0.00,VWS V14.01,2013-01-22 11:51:00,
2013-01-22 05:54:00,1.6,-4.2,30.42,WNW,295,2.2,3.3,76,0.00,,,0.00,0.00,VWS V14.01,2013-01-22 11:54:00,
2013-01-22 05:55:00,1.6,-4.2,30.42,West,279,2.2,2.2,76,0.00,,,0.00,0.00,VWS V14.01,2013-01-22 11:55:00,
2013-01-22 05:56:00,1.6,-4.2,30.43,West,281,3.3,3.3,76,0.00,,,0.00,0.00,VWS V14.01,2013-01-22 11:56:00,
2013-01-22 06:00:00,1.5,-4.3,30.43,West,279,3.3,4.4,76,0.00,,,0.00,0.00,VWS V14.01,2013-01-22 12:00:00,
2013-01-22 06:01:00,1.5,-4.3,30.43,West,276,3.3,3.3,76,0.00,,,0.00,0.00,VWS V14.01,2013-01-22 12:01:00,
2013-01-22 06:02:00,1.4,-4.1,30.43,West,276,2.2,4.4,77,0.00,,,0.00,0.00,VWS V14.01,2013-01-22 12:02:00,
2013-01-22 06:05:00,1.4,-4.1,30.43,WNW,292,4.4,5.5,77,0.00,,,0.00,0.00,VWS V14.01,2013-01-22 12:05:00,
2013-01-22 06:07:00,1.3,-4.2,30.43,WNW,285,3.3,5.5,77,0.00,,,0.00,0.00,VWS V14.01,2013-01-22 12:07:00,
2013-01-22 06:09:00,1.2,-4.3,30.43,WNW,299,3.3,4.4,77,0.00,,,0.00,0.00,VWS V14.01,2013-01-22 12:09:00,
2013-01-22 06:10:00,1.2,-4.3,30.43,NW,308,3.3,4.4,77,0.00,,,0.00,0.00,VWS V14.01,2013-01-22 12:10:00,
2013-01-22 06:12:00,1.1,-4.4,30.43,WNW,296,3.3,5.5,77,0.00,,,0.00,0.00,VWS V14.01,2013-01-22 12:12:00,
2013-01-22 06:14:00,1.0,-4.5,30.43,WNW,301,4.4,5.5,77,0.00,,,0.00,0.00,VWS V14.01,2013-01-22 12:14:00,
2013-01-22 06:15:00,1.0,-4.5,30.43,WNW,284,3.3,3.3,77,0.00,,,0.00,0.00,VWS V14.01,2013-01-22 12:15:00,
2013-01-22 06:17:00,1.0,-4.5,30.43,WNW,294,4.4,4.4,77,0.00,,,0.00,0.00,VWS V14.01,2013-01-22 12:17:00,
2013-01-22 06:19:00,0.9,-4.6,30.43,WNW,295,2.2,3.3,77,0.00,,,0.00,0.00,VWS V14.01,2013-01-22 12:19:00,
2013-01-22 06:21:00,0.9,-4.6,30.43,WNW,299,3.3,3.3,77,0.00,,,0.00,0.00,VWS V14.01,2013-01-22 12:21:00,
2013-01-22 06:22:00,0.9,-4.6,30.43,WNW,300,2.2,3.3,77,0.00,,,0.00,0.00,VWS V14.01,2013-01-22 12:22:00,
2013-01-22 06:23:00,0.8,-4.7,30.43,NW,317,4.4,6.6,77,0.00,,,0.00,0.00,VWS V14.01,2013-01-22 12:23:00,
2013-01-22 06:24:00,0.8,-4.7,30.43,WNW,283,3.3,5.5,77,0.00,,,0.00,0.00,VWS V14.01,2013-01-22 12:24:00,
2013-01-22 06:26:00,0.8,-4.4,30.43,NW,308,4.4,4.4,78,0.00,,,0.00,0.00,VWS V14.01,2013-01-22 12:26:00,
2013-01-22 06:27:00,0.8,-4.4,30.43,WNW,293,5.5,5.5,78,0.00,,,0.00,0.00,VWS V14.01,2013-01-22 12:27:00,
2013-01-22 06:28:00,0.8,-4.4,30.43,West,266,2.2,2.2,78,0.00,,,0.00,0.00,VWS V14.01,2013-01-22 12:28:00,
2013-01-22 06:30:00,0.8,-4.4,30.43,NW,309,4.4,5.5,78,0.00,,,0.00,0.00,VWS V14.01,2013-01-22 12:30:00,
2013-01-22 06:32:00,0.8,-4.4,30.44,West,276,2.2,4.4,78,0.00,,,0.00,0.00,VWS V14.01,2013-01-22 12:32:00,
2013-01-22 06:33:00,0.8,-4.4,30.44,WNW,298,2.2,4.4,78,0.00,,,0.00,0.00,VWS V14.01,2013-01-22 12:33:00,
2013-01-22 06:35:00,0.8,-4.4,30.44,WNW,303,2.2,3.3,78,0.00,,,0.00,0.00,VWS V14.01,2013-01-22 12:35:00,
2013-01-22 06:37:00,0.8,-4.4,30.44,West,281,3.3,4.4,78,0.00,,,0.00,0.00,VWS V14.01,2013-01-22 12:37:00,
2013-01-22 06:38:00,0.8,-4.4,30.44,West,280,3.3,3.3,78,0.00,,,0.00,0.00,VWS V14.01,2013-01-22 12:38:00,
2013-01-22 06:39:00,0.8,-4.4,30.44,WNW,303,3.3,4.4,78,0.00,,,0.00,0.00,VWS V14.01,2013-01-22 12:39:00,
2013-01-22 06:42:00,0.8,-4.4,30.44,WNW,303,2.2,3.3,78,0.00,,,0.00,0.00,VWS V14.01,2013-01-22 12:42:00,
2013-01-22 06:43:00,0.8,-4.4,30.44,WNW,300,2.2,2.2,78,0.00,,,0.00,0.00,VWS V14.01,2013-01-22 12:43:00,
2013-01-22 06:44:00,0.8,-4.4,30.44,WNW,303,2.2,3.3,78,0.00,,,0.00,0.00,VWS V14.01,2013-01-22 12:44:00,
2013-01-22 06:47:00,0.8,-4.4,30.44,NW,310,2.2,3.3,78,0.00,,,0.00,0.00,VWS V14.01,2013-01-22 12:47:00,
2013-01-22 06:48:00,0.8,-4.4,30.44,NW,309,2.2,2.2,78,0.00,,,0.00,0.00,VWS V14.01,2013-01-22 12:48:00,
2013-01-22 06:49:00,0.7,-4.5,30.45,WNW,293,4.4,4.4,78,0.00,,,0.00,0.00,VWS V14.01,2013-01-22 12:49:00,
2013-01-22 06:50:00,0.8,-4.4,30.45,WNW,287,1.1,4.4,78,0.00,,,0.00,0.00,VWS V14.01,2013-01-22 12:50:00,
2013-01-22 06:52:00,0.7,-4.5,30.45,WNW,294,1.1,4.4,78,0.00,,,0.00,0.00,VWS V14.01,2013-01-22 12:52:00,
2013-01-22 06:53:00,0.7,-4.5,30.45,WNW,289,2.2,4.4,78,0.00,,,0.00,0.00,VWS V14.01,2013-01-22 12:53:00,
2013-01-22 06:55:00,0.6,-4.6,30.45,WNW,299,3.3,3.3,78,0.00,,,0.00,0.00,VWS V14.01,2013-01-22 12:55:00,
2013-01-22 06:56:00,0.6,-4.6,30.45,WNW,299,2.2,3.3,78,0.00,,,0.00,0.00,VWS V14.01,2013-01-22 12:56:00,
2013-01-22 06:57:00,0.6,-4.6,30.45,WNW,299,2.2,2.2,78,0.00,,,0.00,0.00,VWS V14.01,2013-01-22 12:57:00,
2013-01-22 06:59:00,0.6,-4.6,30.45,WNW,285,3.3,4.4,78,0.00,,,0.00,0.00,VWS V14.01,2013-01-22 12:59:00,
2013-01-22 07:00:00,0.5,-4.7,30.45,WNW,283,4.4,5.5,78,0.00,,,0.00,0.00,VWS V14.01,2013-01-22 13:00:00,
2013-01-22 07:01:00,0.5,-4.7,30.45,WNW,285,2.2,2.2,78,0.00,,,0.00,0.00,VWS V14.01,2013-01-22 13:01:00,
2013-01-22 07:03:00,0.5,-4.7,30.45,WNW,298,3.3,4.4,78,0.00,,,0.00,0.00,VWS V14.01,2013-01-22 13:03:00,
2013-01-22 07:04:00,0.5,-4.7,30.45,WNW,300,6.6,6.6,78,0.00,,,0.00,0.00,VWS V14.01,2013-01-22 13:04:00,
2013-01-22 07:06:00,0.4,-4.8,30.45,WNW,293,3.3,4.4,78,0.00,,,0.00,0.00,VWS V14.01,2013-01-22 13:06:00,
2013-01-22 07:07:00,0.4,-4.6,30.45,WNW,291,3.3,3.3,79,0.00,,,0.00,0.00,VWS V14.01,2013-01-22 13:07:00,
2013-01-22 07:08:00,0.4,-4.6,30.45,WNW,285,2.2,3.3,79,0.00,,,0.00,0.00,VWS V14.01,2013-01-22 13:08:00,
2013-01-22 07:09:00,0.4,-4.6,30.45,West,278,3.3,4.4,79,0.00,,,0.00,0.00,VWS V14.01,2013-01-22 13:09:00,
2013-01-22 07:11:00,0.4,-4.6,30.45,West,280,1.1,3.3,79,0.00,,,0.00,0.00,VWS V14.01,2013-01-22 13:11:00,
2013-01-22 07:12:00,0.4,-4.6,30.45,West,280,1.1,2.2,79,0.00,,,0.00,0.00,VWS V14.01,2013-01-22 13:12:00,
2013-01-22 07:14:00,0.4,-4.6,30.45,West,280,3.3,3.3,79,0.00,,,0.00,5.00,VWS V14.01,2013-01-22 13:14:00,
2013-01-22 07:16:00,0.4,-4.6,30.45,West,280,2.2,3.3,79,0.00,,,0.00,5.00,VWS V14.01,2013-01-22 13:16:00,
2013-01-22 07:17:00,0.3,-4.7,30.45,West,276,3.3,3.3,79,0.00,,,0.00,5.00,VWS V14.01,2013-01-22 13:17:00,
2013-01-22 07:19:00,0.3,-4.7,30.45,West,280,1.1,1.1,79,0.00,,,0.00,7.00,VWS V14.01,2013-01-22 13:19:00,
2013-01-22 07:20:00,0.3,-4.7,30.45,West,280,2.2,3.3,79,0.00,,,0.00,7.00,VWS V14.01,2013-01-22 13:20:00,
2013-01-22 07:21:00,0.3,-4.7,30.45,West,280,1.1,2.2,79,0.00,,,0.00,7.00,VWS V14.01,2013-01-22 13:21:00,
2013-01-22 07:22:00,0.3,-4.7,30.45,WNW,284,2.2,3.3,79,0.00,,,0.00,9.00,VWS V14.01,2013-01-22 13:22:00,
2013-01-22 07:24:00,0.4,-4.6,30.45,WNW,284,2.2,2.2,79,0.00,,,0.00,9.00,VWS V14.01,2013-01-22 13:24:00,
2013-01-22 07:25:00,0.3,-4.7,30.45,WNW,284,2.2,2.2,79,0.00,,,0.00,9.00,VWS V14.01,2013-01-22 13:25:00,
2013-01-22 07:26:00,0.4,-4.6,30.45,West,277,3.3,4.4,79,0.00,,,0.00,11.00,VWS V14.01,2013-01-22 13:26:00,
2013-01-22 07:28:00,0.4,-4.6,30.45,West,277,2.2,2.2,79,0.00,,,0.00,11.00,VWS V14.01,2013-01-22 13:28:00,
2013-01-22 07:30:00,0.4,-4.6,30.45,West,277,2.2,2.2,79,0.00,,,0.00,12.00,VWS V14.01,2013-01-22 13:30:00,
2013-01-22 07:31:00,0.4,-4.6,30.45,West,278,1.1,3.3,79,0.00,,,0.00,12.00,VWS V14.01,2013-01-22 13:31:00,
2013-01-22 07:33:00,0.4,-4.6,30.45,West,278,2.2,2.2,79,0.00,,,0.00,12.00,VWS V14.01,2013-01-22 13:33:00,
2013-01-22 07:34:00,0.4,-4.6,30.45,West,276,2.2,3.3,79,0.00,,,0.00,14.00,VWS V14.01,2013-01-22 13:34:00,
2013-01-22 07:35:00,0.5,-4.5,30.45,West,276,1.1,2.2,79,0.00,,,0.00,14.00,VWS V14.01,2013-01-22 13:35:00,
2013-01-22 07:36:00,0.4,-4.3,30.45,West,269,4.4,4.4,80,0.00,,,0.00,14.00,VWS V14.01,2013-01-22 13:36:00,
2013-01-22 07:39:00,0.5,-4.2,30.45,West,269,4.4,4.4,80,0.00,,,0.00,16.00,VWS V14.01,2013-01-22 13:39:00,
2013-01-22 07:40:00,0.6,-4.1,30.46,West,269,3.3,3.3,80,0.00,,,0.00,16.00,VWS V14.01,2013-01-22 13:40:00,
2013-01-22 07:41:00,0.6,-4.1,30.46,West,278,3.3,4.4,80,0.00,,,0.00,16.00,VWS V14.01,2013-01-22 13:41:00,
2013-01-22 07:44:00,0.6,-4.1,30.45,West,271,5.5,6.6,80,0.00,,,0.00,18.00,VWS V14.01,2013-01-22 13:44:00,
2013-01-22 07:45:00,0.7,-4.0,30.46,West,269,2.2,3.3,80,0.00,,,0.00,18.00,VWS V14.01,2013-01-22 13:45:00,
2013-01-22 07:46:00,0.7,-4.0,30.46,West,269,2.2,3.3,80,0.00,,,0.00,18.00,VWS V14.01,2013-01-22 13:46:00,
2013-01-22 07:49:00,0.8,-3.9,30.46,West,270,3.3,5.5,80,0.00,,,0.00,18.00,VWS V14.01,2013-01-22 13:49:00,
2013-01-22 07:50:00,0.8,-3.9,30.46,WNW,287,3.3,5.5,80,0.00,,,0.00,19.00,VWS V14.01,2013-01-22 13:50:00,
2013-01-22 07:51:00,0.8,-3.9,30.46,WNW,285,3.3,3.3,80,0.00,,,0.00,19.00,VWS V14.01,2013-01-22 13:51:00,
2013-01-22 07:53:00,0.9,-3.8,30.46,West,276,5.5,5.5,80,0.00,,,0.00,19.00,VWS V14.01,2013-01-22 13:53:00,
2013-01-22 07:55:00,0.9,-3.8,30.46,West,278,3.3,3.3,80,0.00,,,0.00,19.00,VWS V14.01,2013-01-22 13:55:00,
2013-01-22 07:56:00,1.0,-3.7,30.46,WNW,285,5.5,5.5,80,0.00,,,0.00,21.00,VWS V14.01,2013-01-22 13:56:00,
2013-01-22 07:59:00,1.1,-3.6,30.46,West,276,4.4,6.6,80,0.00,,,0.00,21.00,VWS V14.01,2013-01-22 13:59:00,
2013-01-22 08:00:00,1.1,-3.9,30.46,West,280,7.7,7.7,79,0.00,,,0.00,23.00,VWS V14.01,2013-01-22 14:00:00,
2013-01-22 08:02:00,1.2,-3.8,30.46,WNW,294,3.3,8.8,79,0.00,,,0.00,28.00,VWS V14.01,2013-01-22 14:02:00,
2013-01-22 08:04:00,1.3,-3.7,30.47,WNW,293,4.4,5.5,79,0.00,,,0.00,28.00,VWS V14.01,2013-01-22 14:04:00,
2013-01-22 08:06:00,1.4,-3.3,30.46,WNW,301,5.5,6.6,80,0.00,,,0.00,32.00,VWS V14.01,2013-01-22 14:06:00,
2013-01-22 08:07:00,1.4,-3.6,30.46,WNW,283,4.4,7.7,79,0.00,,,0.00,32.00,VWS V14.01,2013-01-22 14:07:00,
2013-01-22 08:09:00,1.5,-3.5,30.47,WNW,282,7.7,7.7,79,0.00,,,0.00,37.00,VWS V14.01,2013-01-22 14:09:00,
2013-01-22 08:12:00,1.6,-3.4,30.47,West,277,4.4,4.4,79,0.00,,,0.00,40.00,VWS V14.01,2013-01-22 14:12:00,
2013-01-22 08:13:00,1.7,-3.3,30.47,WNW,285,6.6,7.7,79,0.00,,,0.00,40.00,VWS V14.01,2013-01-22 14:13:00,
2013-01-22 08:15:00,1.9,-3.1,30.47,WNW,301,6.6,6.6,79,0.00,,,0.00,40.00,VWS V14.01,2013-01-22 14:15:00,
2013-01-22 08:17:00,1.9,-3.1,30.47,WNW,285,7.7,7.7,79,0.00,,,0.00,46.00,VWS V14.01,2013-01-22 14:17:00,
2013-01-22 08:19:00,2.0,-3.3,30.47,West,268,6.6,8.8,78,0.00,,,0.00,40.00,VWS V14.01,2013-01-22 14:19:00,
2013-01-22 08:21:00,2.1,-3.2,30.47,WNW,289,8.8,8.8,78,0.00,,,0.00,37.00,VWS V14.01,2013-01-22 14:21:00,
2013-01-22 08:22:00,2.2,-3.1,30.47,WNW,283,8.8,9.9,78,0.00,,,0.00,35.00,VWS V14.01,2013-01-22 14:22:00,
2013-01-22 08:23:00,2.3,-3.0,30.47,WNW,283,6.6,11.0,78,0.00,,,0.00,33.00,VWS V14.01,2013-01-22 14:23:00,
2013-01-22 08:24:00,2.4,-2.9,30.47,West,276,4.4,8.8,78,0.00,,,0.00,33.00,VWS V14.01,2013-01-22 14:24:00,
2013-01-22 08:27:00,2.7,-2.9,30.47,NW,308,7.7,13.2,77,0.00,,,0.00,35.00,VWS V14.01,2013-01-22 14:27:00,
2013-01-22 08:28:00,2.7,-2.9,30.47,WNW,295,6.6,11.0,77,0.00,,,0.00,44.00,VWS V14.01,2013-01-22 14:28:00,
2013-01-22 08:29:00,2.7,-2.9,30.47,West,264,7.7,8.8,77,0.00,,,0.00,44.00,VWS V14.01,2013-01-22 14:29:00,
2013-01-22 08:32:00,2.7,-3.1,30.47,West,267,5.5,11.0,76,0.00,,,0.00,39.00,VWS V14.01,2013-01-22 14:32:00,
2013-01-22 08:33:00,2.7,-3.1,30.47,West,265,8.8,8.8,76,0.00,,,0.00,40.00,VWS V14.01,2013-01-22 14:33:00,
2013-01-22 08:35:00,2.8,-3.0,30.47,West,280,5.5,5.5,76,0.00,,,0.00,40.00,VWS V14.01,2013-01-22 14:35:00,
2013-01-22 08:37:00,2.8,-3.0,30.47,NW,319,8.8,8.8,76,0.00,,,0.00,53.00,VWS V14.01,2013-01-22 14:37:00,
2013-01-22 08:38:00,2.9,-3.2,30.47,WNW,302,12.1,13.2,75,0.00,,,0.00,60.00,VWS V14.01,2013-01-22 14:38:00,
2013-01-22 08:40:00,2.9,-3.2,30.47,WNW,303,8.8,9.9,75,0.00,,,0.00,62.00,VWS V14.01,2013-01-22 14:40:00,
2013-01-22 08:43:00,3.0,-3.1,30.47,WNW,282,6.6,6.6,75,0.00,,,0.00,67.00,VWS V14.01,2013-01-22 14:43:00,
2013-01-22 08:44:00,3.1,-3.0,30.47,West,267,9.9,11.0,75,0.00,,,0.00,76.00,VWS V14.01,2013-01-22 14:44:00,
2013-01-22 08:45:00,3.1,-3.0,30.47,WNW,283,4.4,11.0,75,0.00,,,0.00,76.00,VWS V14.01,2013-01-22 14:45:00,
2013-01-22 08:47:00,3.0,-3.1,30.47,NW,312,6.6,8.8,75,0.00,,,0.00,100.00,VWS V14.01,2013-01-22 14:47:00,
2013-01-22 08:48:00,3.1,-3.3,30.47,WNW,291,9.9,12.1,74,0.00,,,0.00,121.00,VWS V14.01,2013-01-22 14:48:00,
2013-01-22 08:49:00,3.1,-3.0,30.47,NW,306,7.7,9.9,75,0.00,,,0.00,111.00,VWS V14.01,2013-01-22 14:49:00,
2013-01-22 08:50:00,3.2,-2.9,30.47,WNW,290,8.8,9.9,75,0.00,,,0.00,134.00,VWS V14.01,2013-01-22 14:50:00,
2013-01-22 08:53:00,3.2,-3.2,30.47,NW,307,5.5,8.8,74,0.00,,,0.00,98.00,VWS V14.01,2013-01-22 14:53:00,
2013-01-22 08:54:00,3.2,-3.2,30.47,WNW,301,7.7,8.8,74,0.00,,,0.00,98.00,VWS V14.01,2013-01-22 14:54:00,
2013-01-22 08:55:00,3.3,-3.1,30.47,WNW,300,9.9,14.3,74,0.00,,,0.00,76.00,VWS V14.01,2013-01-22 14:55:00,
2013-01-22 08:59:00,3.5,-2.9,30.47,WNW,289,11.0,13.2,74,0.00,,,0.00,67.00,VWS V14.01,2013-01-22 14:59:00,
2013-01-22 09:00:00,3.5,-2.9,30.47,WNW,301,8.8,12.1,74,0.00,,,0.00,40.00,VWS V14.01,2013-01-22 15:00:00,
2013-01-22 09:04:00,3.5,-2.9,30.47,West,270,7.7,12.1,74,0.00,,,0.00,32.00,VWS V14.01,2013-01-22 15:04:00,
2013-01-22 09:05:00,3.5,-2.9,30.47,WSW,247,9.9,9.9,74,0.00,,,0.00,39.00,VWS V14.01,2013-01-22 15:05:00,
2013-01-22 09:10:00,3.6,-3.1,30.47,WNW,291,12.1,15.4,73,0.00,,,0.00,81.00,VWS V14.01,2013-01-22 15:10:00,
2013-01-22 09:11:00,3.6,-3.1,30.47,WNW,301,9.9,15.4,73,0.00,,,0.00,109.00,VWS V14.01,2013-01-22 15:11:00,
2013-01-22 09:15:00,3.7,-3.0,30.47,WNW,285,5.5,12.1,73,0.00,,,0.00,51.00,VWS V14.01,2013-01-22 15:15:00,
2013-01-22 09:16:00,3.7,-3.0,30.47,WNW,283,6.6,7.7,73,0.00,,,0.00,56.00,VWS V14.01,2013-01-22 15:16:00,
2013-01-22 09:17:00,3.8,-2.9,30.48,West,272,16.5,16.5,73,0.00,,,0.00,46.00,VWS V14.01,2013-01-22 15:17:00,
2013-01-22 09:20:00,3.9,-2.8,30.48,WSW,256,13.2,13.2,73,0.00,,,0.00,47.00,VWS V14.01,2013-01-22 15:20:00,
2013-01-22 09:21:00,3.9,-2.8,30.48,WNW,293,9.9,13.2,73,0.00,,,0.00,44.00,VWS V14.01,2013-01-22 15:21:00,
2013-01-22 09:23:00,4.0,-2.7,30.48,NW,314,7.7,7.7,73,0.00,,,0.00,33.00,VWS V14.01,2013-01-22 15:23:00,
2013-01-22 09:26:00,4.2,-2.5,30.48,West,278,11.0,11.0,73,0.00,,,0.00,37.00,VWS V14.01,2013-01-22 15:26:00,
2013-01-22 09:27:00,4.2,-2.5,30.48,WNW,293,7.7,13.2,73,0.00,,,0.00,37.00,VWS V14.01,2013-01-22 15:27:00,
2013-01-22 09:29:00,4.2,-2.8,30.48,West,276,9.9,11.0,72,0.00,,,0.00,37.00,VWS V14.01,2013-01-22 15:29:00,
2013-01-22 09:31:00,4.3,-2.7,30.48,WNW,299,14.3,14.3,72,0.00,,,0.00,37.00,VWS V14.01,2013-01-22 15:31:00,
2013-01-22 09:33:00,4.3,-2.7,30.48,West,278,9.9,14.3,72,0.00,,,0.00,35.00,VWS V14.01,2013-01-22 15:33:00,
2013-01-22 09:34:00,4.4,-2.6,30.48,West,274,11.0,13.2,72,0.00,,,0.00,40.00,VWS V14.01,2013-01-22 15:34:00,
2013-01-22 09:37:00,4.5,-2.5,30.48,WNW,290,6.6,13.2,72,0.00,,,0.00,53.00,VWS V14.01,2013-01-22 15:37:00,
2013-01-22 09:38:00,4.6,-2.4,30.48,WNW,299,8.8,8.8,72,0.00,,,0.00,51.00,VWS V14.01,2013-01-22 15:38:00,
2013-01-22 09:39:00,4.6,-2.4,30.48,NW,305,15.4,15.4,72,0.00,,,0.00,39.00,VWS V14.01,2013-01-22 15:39:00,
2013-01-22 09:42:00,4.7,-2.3,30.48,WNW,282,7.7,7.7,72,0.00,,,0.00,39.00,VWS V14.01,2013-01-22 15:42:00,
2013-01-22 09:44:00,4.8,-2.2,30.48,West,266,12.1,13.2,72,0.00,,,0.00,37.00,VWS V14.01,2013-01-22 15:44:00,
2013-01-22 09:45:00,4.8,-2.2,30.48,West,272,5.5,13.2,72,0.00,,,0.00,39.00,VWS V14.01,2013-01-22 15:45:00,
2013-01-22 09:46:00,4.9,-2.1,30.48,West,261,6.6,8.8,72,0.00,,,0.00,37.00,VWS V14.01,2013-01-22 15:46:00,
2013-01-22 09:48:00,4.9,-2.4,30.48,West,270,7.7,7.7,71,0.00,,,0.00,40.00,VWS V14.01,2013-01-22 15:48:00,
2013-01-22 09:49:00,4.8,-2.5,30.48,WSW,248,8.8,8.8,71,0.00,,,0.00,39.00,VWS V14.01,2013-01-22 15:49:00,
2013-01-22 09:50:00,4.9,-2.4,30.48,WNW,302,9.9,9.9,71,0.00,,,0.00,39.00,VWS V14.01,2013-01-22 15:50:00,
2013-01-22 09:53:00,5.0,-2.3,30.48,NW,306,5.5,12.1,71,0.00,,,0.00,39.00,VWS V14.01,2013-01-22 15:53:00,
2013-01-22 09:55:00,5.0,-2.3,30.49,WNW,291,8.8,9.9,71,0.00,,,0.00,42.00,VWS V14.01,2013-01-22 15:55:00,
2013-01-22 09:58:00,5.1,-2.2,30.49,WNW,284,11.0,13.2,71,0.00,,,0.00,49.00,VWS V14.01,2013-01-22 15:58:00,
2013-01-22 09:59:00,5.2,-2.1,30.48,West,261,7.7,7.7,71,0.00,,,0.00,49.00,VWS V14.01,2013-01-22 15:59:00,
2013-01-22 10:01:00,5.4,-1.6,30.49,West,268,6.6,11.0,72,0.00,,,0.00,51.00,VWS V14.01,2013-01-22 16:01:00,
2013-01-22 10:04:00,5.5,-2.2,30.49,West,273,9.9,9.9,70,0.00,,,0.00,56.00,VWS V14.01,2013-01-22 16:04:00,
2013-01-22 10:05:00,5.5,-2.2,30.49,West,268,12.1,12.1,70,0.00,,,0.00,58.00,VWS V14.01,2013-01-22 16:05:00,
2013-01-22 10:06:00,5.5,-2.2,30.49,WNW,283,13.2,13.2,70,0.00,,,0.00,58.00,VWS V14.01,2013-01-22 16:06:00,
2013-01-22 10:09:00,5.4,-2.2,30.49,WNW,285,6.6,13.2,70,0.00,,,0.00,44.00,VWS V14.01,2013-01-22 16:09:00,
2013-01-22 10:10:00,5.5,-2.2,30.49,WSW,251,6.6,7.7,70,0.00,,,0.00,44.00,VWS V14.01,2013-01-22 16:10:00,
2013-01-22 10:11:00,5.5,-2.2,30.49,WNW,285,4.4,9.9,70,0.00,,,0.00,44.00,VWS V14.01,2013-01-22 16:11:00,
2013-01-22 10:15:00,5.9,-1.8,30.49,NW,318,6.6,9.9,70,0.00,,,0.00,44.00,VWS V14.01,2013-01-22 16:15:00,
2013-01-22 10:16:00,6.0,-1.7,30.49,WNW,299,8.8,13.2,70,0.00,,,0.00,47.00,VWS V14.01,2013-01-22 16:16:00,
2013-01-22 10:17:00,6.0,-1.4,30.49,NW,315,7.7,13.2,71,0.00,,,0.00,47.00,VWS V14.01,2013-01-22 16:17:00,
2013-01-22 10:20:00,6.2,-2.4,30.49,NW,316,9.9,12.1,67,0.00,,,0.00,53.00,VWS V14.01,2013-01-22 16:20:00,
2013-01-22 10:22:00,6.2,-2.1,30.49,WNW,293,11.0,11.0,68,0.00,,,0.00,54.00,VWS V14.01,2013-01-22 16:22:00,
2013-01-22 10:23:00,6.3,-2.0,30.49,WNW,293,7.7,11.0,68,0.00,,,0.00,54.00,VWS V14.01,2013-01-22 16:23:00,
2013-01-22 10:26:00,6.3,-2.0,30.49,West,274,3.3,9.9,68,0.00,,,0.00,51.00,VWS V14.01,2013-01-22 16:26:00,
2013-01-22 10:27:00,6.3,-2.3,30.49,NW,314,5.5,7.7,67,0.00,,,0.00,63.00,VWS V14.01,2013-01-22 16:27:00,
2013-01-22 10:28:00,6.4,-1.9,30.49,West,266,8.8,8.8,68,0.00,,,0.00,63.00,VWS V14.01,2013-01-22 16:28:00,
2013-01-22 10:31:00,6.6,-1.7,30.49,WNW,297,8.8,8.8,68,0.00,,,0.00,62.00,VWS V14.01,2013-01-22 16:31:00,
2013-01-22 10:33:00,6.8,-1.8,30.49,WNW,295,9.9,11.0,67,0.00,,,0.00,47.00,VWS V14.01,2013-01-22 16:33:00,
2013-01-22 10:34:00,6.8,-1.8,30.49,WNW,293,8.8,11.0,67,0.00,,,0.00,47.00,VWS V14.01,2013-01-22 16:34:00,
2013-01-22 10:37:00,6.9,-1.7,30.48,West,277,3.3,9.9,67,0.00,,,0.00,46.00,VWS V14.01,2013-01-22 16:37:00,
2013-01-22 10:39:00,6.9,-2.0,30.49,WSW,243,8.8,9.9,66,0.00,,,0.00,47.00,VWS V14.01,2013-01-22 16:39:00,
2013-01-22 10:44:00,7.4,-1.6,30.48,WSW,253,8.8,8.8,66,0.00,,,0.00,69.00,VWS V14.01,2013-01-22 16:44:00,
2013-01-22 10:45:00,7.4,-1.6,30.48,West,281,6.6,6.6,66,0.00,,,0.00,67.00,VWS V14.01,2013-01-22 16:45:00,
2013-01-22 10:49:00,7.6,-1.4,30.48,West,259,11.0,16.5,66,0.00,,,0.00,86.00,VWS V14.01,2013-01-22 16:49:00,
2013-01-22 10:50:00,7.5,-1.5,30.48,WSW,258,6.6,11.0,66,0.00,,,0.00,93.00,VWS V14.01,2013-01-22 16:50:00,
2013-01-22 10:52:00,7.3,-1.7,30.48,West,269,6.6,12.1,66,0.00,,,0.00,127.00,VWS V14.01,2013-01-22 16:52:00,
2013-01-22 10:55:00,7.3,-1.7,30.48,West,261,9.9,9.9,66,0.00,,,0.00,169.00,VWS V14.01,2013-01-22 16:55:00,
2013-01-22 10:57:00,7.7,-0.6,30.48,West,267,6.6,6.6,68,0.00,,,0.00,86.00,VWS V14.01,2013-01-22 16:57:00,
2013-01-22 11:01:00,7.7,-1.3,30.48,WSW,251,13.2,13.2,66,0.00,,,0.00,158.00,VWS V14.01,2013-01-22 17:01:00,
2013-01-22 11:02:00,7.5,-1.5,30.48,West,272,11.0,13.2,66,0.00,,,0.00,160.00,VWS V14.01,2013-01-22 17:02:00,
2013-01-22 11:04:00,7.2,-1.8,30.48,West,279,6.6,9.9,66,0.00,,,0.00,197.00,VWS V14.01,2013-01-22 17:04:00,
2013-01-22 11:06:00,7.0,-2.0,30.47,WSW,246,16.5,19.8,66,0.00,,,0.00,125.00,VWS V14.01,2013-01-22 17:06:00,
2013-01-22 11:08:00,7.4,-1.2,30.48,West,271,14.3,14.3,67,0.00,,,0.00,162.00,VWS V14.01,2013-01-22 17:08:00,
2013-01-22 11:09:00,7.5,-1.5,30.48,West,268,13.2,14.3,66,0.00,,,0.00,162.00,VWS V14.01,2013-01-22 17:09:00,
2013-01-22 11:12:00,7.3,-1.7,30.47,West,274,7.7,11.0,66,0.00,,,0.00,134.00,VWS V14.01,2013-01-22 17:12:00,
2013-01-22 11:13:00,7.1,-1.9,30.47,West,278,4.4,8.8,66,0.00,,,0.00,207.00,VWS V14.01,2013-01-22 17:13:00,
2013-01-22 11:14:00,7.1,-1.9,30.47,WSW,256,7.7,8.8,66,0.00,,,0.00,199.00,VWS V14.01,2013-01-22 17:14:00,
2013-01-22 11:17:00,7.5,-1.1,30.47,WNW,285,3.3,8.8,67,0.00,,,0.00,209.00,VWS V14.01,2013-01-22 17:17:00,
2013-01-22 11:18:00,7.8,-1.2,30.47,NW,322,12.1,12.1,66,0.00,,,0.00,207.00,VWS V14.01,2013-01-22 17:18:00,
2013-01-22 11:19:00,7.9,-1.1,30.47,NW,320,8.8,12.1,66,0.00,,,0.00,211.00,VWS V14.01,2013-01-22 17:19:00,
2013-01-22 11:20:00,8.2,-0.5,30.47,West,276,5.5,11.0,67,0.00,,,0.00,171.00,VWS V14.01,2013-01-22 17:20:00,
2013-01-22 11:22:00,8.6,-0.1,30.47,West,261,7.7,7.7,67,0.00,,,0.00,114.00,VWS V14.01,2013-01-22 17:22:00,
2013-01-22 11:23:00,8.6,-0.4,30.47,West,270,8.8,8.8,66,0.00,,,0.00,146.00,VWS V14.01,2013-01-22 17:23:00,
2013-01-22 11:24:00,8.6,-0.4,30.47,West,273,13.2,14.3,66,0.00,,,0.00,237.00,VWS V14.01,2013-01-22 17:24:00,
2013-01-22 11:25:00,8.6,-0.4,30.47,West,271,15.4,15.4,66,0.00,,,0.00,318.00,VWS V14.01,2013-01-22 17:25:00,
2013-01-22 11:27:00,8.3,-0.7,30.46,West,274,6.6,9.9,66,0.00,,,0.00,250.00,VWS V14.01,2013-01-22 17:27:00,
2013-01-22 11:29:00,8.0,-1.3,30.46,West,273,11.0,11.0,65,0.00,,,0.00,244.00,VWS V14.01,2013-01-22 17:29:00,
2013-01-22 11:31:00,8.2,-1.1,30.46,WSW,253,13.2,13.2,65,0.00,,,0.00,225.00,VWS V14.01,2013-01-22 17:31:00,
2013-01-22 11:32:00,8.1,-1.2,30.46,West,264,15.4,15.4,65,0.00,,,0.00,336.00,VWS V14.01,2013-01-22 17:32:00,
2013-01-22 11:34:00,8.2,-1.1,30.46,West,276,6.6,14.3,65,0.00,,,0.00,336.00,VWS V14.01,2013-01-22 17:34:00,
2013-01-22 11:35:00,8.2,-1.1,30.46,West,272,8.8,12.1,65,0.00,,,0.00,341.00,VWS V14.01,2013-01-22 17:35:00,
2013-01-22 11:36:00,8.3,-1.0,30.46,WNW,293,8.8,12.1,65,0.00,,,0.00,341.00,VWS V14.01,2013-01-22 17:36:00,
2013-01-22 11:38:00,8.8,-0.2,30.46,West,260,9.9,9.9,66,0.00,,,0.00,288.00,VWS V14.01,2013-01-22 17:38:00,
2013-01-22 11:40:00,8.8,-0.6,30.46,NNW,328,7.7,11.0,65,0.00,,,0.00,301.00,VWS V14.01,2013-01-22 17:40:00,
2013-01-22 11:41:00,8.9,-0.4,30.46,West,280,4.4,8.8,65,0.00,,,0.00,320.00,VWS V14.01,2013-01-22 17:41:00,
2013-01-22 11:42:00,8.7,-1.0,30.46,West,280,5.5,8.8,64,0.00,,,0.00,315.00,VWS V14.01,2013-01-22 17:42:00,
2013-01-22 11:44:00,8.6,-0.7,30.46,West,266,7.7,11.0,65,0.00,,,0.00,332.00,VWS V14.01,2013-01-22 17:44:00,
2013-01-22 11:45:00,8.6,-0.7,30.46,West,260,9.9,13.2,65,0.00,,,0.00,253.00,VWS V14.01,2013-01-22 17:45:00,
2013-01-22 11:47:00,8.4,-1.3,30.45,WNW,285,9.9,13.2,64,0.00,,,0.00,297.00,VWS V14.01,2013-01-22 17:47:00,
2013-01-22 11:49:00,8.2,-1.5,30.45,West,263,8.8,8.8,64,0.00,,,0.00,274.00,VWS V14.01,2013-01-22 17:49:00,
2013-01-22 11:50:00,8.3,-1.0,30.45,West,272,13.2,13.2,65,0.00,,,0.00,227.00,VWS V14.01,2013-01-22 17:50:00,
2013-01-22 11:52:00,8.7,-0.6,30.45,WNW,284,8.8,12.1,65,0.00,,,0.00,308.00,VWS V14.01,2013-01-22 17:52:00,
2013-01-22 11:53:00,8.7,-0.6,30.45,West,278,8.8,11.0,65,0.00,,,0.00,325.00,VWS V14.01,2013-01-22 17:53:00,
2013-01-22 11:55:00,8.8,-0.6,30.45,West,273,8.8,12.1,65,0.00,,,0.00,285.00,VWS V14.01,2013-01-22 17:55:00,
2013-01-22 11:57:00,9.3,-0.1,30.46,West,263,7.7,8.8,65,0.00,,,0.00,343.00,VWS V14.01,2013-01-22 17:57:00,
2013-01-22 11:59:00,9.4,-0.3,30.45,WNW,289,9.9,12.1,64,0.00,,,0.00,348.00,VWS V14.01,2013-01-22 17:59:00,
2013-01-22 12:01:00,10.0,0.9,30.45,WNW,302,14.3,14.3,66,0.00,,,0.00,311.00,VWS V14.01,2013-01-22 18:01:00,
2013-01-22 12:02:00,10.0,0.6,30.45,West,267,13.2,16.5,65,0.00,,,0.00,367.00,VWS V14.01,2013-01-22 18:02:00,
2013-01-22 12:04:00,9.8,0.1,30.45,WNW,285,13.2,13.2,64,0.00,,,0.00,353.00,VWS V14.01,2013-01-22 18:04:00,
2013-01-22 12:07:00,10.0,-0.1,30.45,NW,310,15.4,15.4,63,0.00,,,0.00,376.00,VWS V14.01,2013-01-22 18:07:00,
2013-01-22 12:08:00,10.1,0.0,30.45,West,268,15.4,15.4,63,0.00,,,0.00,325.00,VWS V14.01,2013-01-22 18:08:00,
2013-01-22 12:09:00,10.0,-0.1,30.45,WNW,291,8.8,13.2,63,0.00,,,0.00,200.00,VWS V14.01,2013-01-22 18:09:00,
2013-01-22 12:13:00,10.2,0.1,30.46,West,262,6.6,14.3,63,0.00,,,0.00,301.00,VWS V14.01,2013-01-22 18:13:00,
2013-01-22 12:14:00,10.1,0.0,30.45,West,268,8.8,11.0,63,0.00,,,0.00,341.00,VWS V14.01,2013-01-22 18:14:00,
2013-01-22 12:18:00,10.5,0.4,30.45,WNW,286,11.0,12.1,63,0.00,,,0.00,366.00,VWS V14.01,2013-01-22 18:18:00,
2013-01-22 12:19:00,10.4,0.3,30.45,WNW,294,13.2,13.2,63,0.00,,,0.00,366.00,VWS V14.01,2013-01-22 18:19:00,
2013-01-22 12:20:00,10.2,-0.2,30.45,WNW,295,9.9,12.1,62,0.00,,,0.00,74.00,VWS V14.01,2013-01-22 18:20:00,
2013-01-22 12:24:00,9.6,-0.4,30.45,WNW,293,5.5,14.3,63,0.00,,,0.00,60.00,VWS V14.01,2013-01-22 18:24:00,
2013-01-22 12:25:00,9.5,-0.9,30.45,West,277,15.4,16.5,62,0.00,,,0.00,60.00,VWS V14.01,2013-01-22 18:25:00,
2013-01-22 12:29:00,9.4,-0.6,30.45,WNW,297,9.9,14.3,63,0.00,,,0.00,221.00,VWS V14.01,2013-01-22 18:29:00,
2013-01-22 12:30:00,9.7,0.0,30.45,NW,307,13.2,13.2,64,0.00,,,0.00,285.00,VWS V14.01,2013-01-22 18:30:00,
2013-01-22 12:32:00,10.0,-0.1,30.45,West,265,12.1,12.1,63,0.00,,,0.00,257.00,VWS V14.01,2013-01-22 18:32:00,
2013-01-22 12:35:00,10.1,-0.3,30.45,WNW,287,9.9,12.1,62,0.00,,,0.00,200.00,VWS V14.01,2013-01-22 18:35:00,
2013-01-22 12:37:00,10.1,-0.3,30.45,NW,318,14.3,14.3,62,0.00,,,0.00,213.00,VWS V14.01,2013-01-22 18:37:00,
2013-01-22 12:40:00,10.0,-1.1,30.45,WNW,291,13.2,16.5,60,0.00,,,0.00,181.00,VWS V14.01,2013-01-22 18:40:00,
2013-01-22 12:41:00,9.9,-1.2,30.45,NW,311,13.2,16.5,60,0.00,,,0.00,181.00,VWS V14.01,2013-01-22 18:41:00,
2013-01-22 12:43:00,10.1,-0.7,30.45,WNW,285,15.4,15.4,61,0.00,,,0.00,206.00,VWS V14.01,2013-01-22 18:43:00,
2013-01-22 12:46:00,10.3,-0.8,30.45,WNW,296,14.3,16.5,60,0.00,,,0.00,188.00,VWS V14.01,2013-01-22 18:46:00,
2013-01-22 12:47:00,10.4,-0.4,30.45,West,271,13.2,13.2,61,0.00,,,0.00,90.00,VWS V14.01,2013-01-22 18:47:00,
2013-01-22 12:48:00,10.6,-0.2,30.45,West,274,6.6,14.3,61,0.00,,,0.00,47.00,VWS V14.01,2013-01-22 18:48:00,
2013-01-22 12:49:00,10.8,0.0,30.45,WSW,251,8.8,12.1,61,0.00,,,0.00,62.00,VWS V14.01,2013-01-22 18:49:00,
2013-01-22 12:51:00,10.9,-0.2,30.44,WSW,253,7.7,11.0,60,0.00,,,0.00,118.00,VWS V14.01,2013-01-22 18:51:00,
2013-01-22 12:53:00,10.9,-0.2,30.45,West,266,6.6,13.2,60,0.00,,,0.00,269.00,VWS V14.01,2013-01-22 18:53:00,
2013-01-22 12:54:00,11.1,-0.1,30.45,West,272,7.7,8.8,60,0.00,,,0.00,318.00,VWS V14.01,2013-01-22 18:54:00,
2013-01-22 12:55:00,11.1,-0.1,30.45,WNW,293,9.9,11.0,60,0.00,,,0.00,304.00,VWS V14.01,2013-01-22 18:55:00,
2013-01-22 12:58:00,11.0,-0.5,30.45,West,271,14.3,14.3,59,0.00,,,0.00,304.00,VWS V14.01,2013-01-22 18:58:00,
2013-01-22 12:59:00,10.7,-0.8,30.45,WNW,286,11.0,11.0,59,0.00,,,0.00,338.00,VWS V14.01,2013-01-22 18:59:00,
2013-01-22 13:00:00,10.7,-0.8,30.45,WSW,256,15.4,15.4,59,0.00,,,0.00,330.00,VWS V14.01,2013-01-22 19:00:00,
2013-01-22 13:03:00,11.0,-0.5,30.45,WSW,251,7.7,9.9,59,0.00,,,0.00,422.00,VWS V14.01,2013-01-22 19:03:00,
2013-01-22 13:04:00,11.0,-0.9,30.45,West,274,7.7,8.8,58,0.00,,,0.00,422.00,VWS V14.01,2013-01-22 19:04:00,
2013-01-22 13:05:00,11.1,-0.4,30.44,West,265,7.7,9.9,59,0.00,,,0.00,185.00,VWS V14.01,2013-01-22 19:05:00,
2013-01-22 13:09:00,10.9,-1.0,30.44,WSW,248,12.1,12.1,58,0.00,,,0.00,380.00,VWS V14.01,2013-01-22 19:09:00,
2013-01-22 13:10:00,11.1,-0.8,30.44,WSW,255,12.1,12.1,58,0.00,,,0.00,396.00,VWS V14.01,2013-01-22 19:10:00,
2013-01-22 13:14:00,11.2,-0.7,30.44,West,273,11.0,16.5,58,0.00,,,0.00,113.00,VWS V14.01,2013-01-22 19:14:00,
2013-01-22 13:15:00,11.3,-0.6,30.44,West,276,7.7,7.7,58,0.00,,,0.00,100.00,VWS V14.01,2013-01-22 19:15:00,
2013-01-22 13:16:00,11.3,-0.6,30.44,West,277,4.4,8.8,58,0.00,,,0.00,195.00,VWS V14.01,2013-01-22 19:16:00,
2013-01-22 13:19:00,11.1,-0.8,30.44,West,266,8.8,13.2,58,0.00,,,0.00,220.00,VWS V14.01,2013-01-22 19:19:00,
2013-01-22 13:20:00,11.2,-0.7,30.44,West,264,9.9,13.2,58,0.00,,,0.00,160.00,VWS V14.01,2013-01-22 19:20:00,
2013-01-22 13:22:00,11.4,-0.5,30.44,WNW,297,7.7,14.3,58,0.00,,,0.00,81.00,VWS V14.01,2013-01-22 19:22:00,
2013-01-22 13:24:00,11.5,-0.8,30.44,WNW,291,11.0,13.2,57,0.00,,,0.00,76.00,VWS V14.01,2013-01-22 19:24:00,
2013-01-22 13:25:00,11.4,-0.9,30.44,West,281,9.9,13.2,57,0.00,,,0.00,76.00,VWS V14.01,2013-01-22 19:25:00,
2013-01-22 13:27:00,11.5,-0.8,30.44,WNW,288,9.9,14.3,57,0.00,,,0.00,339.00,VWS V14.01,2013-01-22 19:27:00,
2013-01-22 13:29:00,11.6,-0.7,30.44,WSW,251,13.2,16.5,57,0.00,,,0.00,364.00,VWS V14.01,2013-01-22 19:29:00,
2013-01-22 13:30:00,11.7,-1.0,30.44,WNW,291,7.7,15.4,56,0.00,,,0.00,364.00,VWS V14.01,2013-01-22 19:30:00,
2013-01-22 13:32:00,11.7,-1.0,30.44,WSW,251,7.7,12.1,56,0.00,,,0.00,352.00,VWS V14.01,2013-01-22 19:32:00,
2013-01-22 13:34:00,11.8,-0.9,30.44,West,269,12.1,13.2,56,0.00,,,0.00,364.00,VWS V14.01,2013-01-22 19:34:00,
2013-01-22 13:35:00,11.8,-0.9,30.44,WSW,252,15.4,15.4,56,0.00,,,0.00,364.00,VWS V14.01,2013-01-22 19:35:00,
2013-01-22 13:38:00,11.8,-0.9,30.44,WNW,285,4.4,11.0,56,0.00,,,0.00,297.00,VWS V14.01,2013-01-22 19:38:00,
2013-01-22 13:39:00,11.7,-1.0,30.44,West,275,12.1,16.5,56,0.00,,,0.00,308.00,VWS V14.01,2013-01-22 19:39:00,
2013-01-22 13:40:00,11.7,-1.0,30.44,West,273,11.0,14.3,56,0.00,,,0.00,299.00,VWS V14.01,2013-01-22 19:40:00,
2013-01-22 13:43:00,11.8,-0.9,30.44,West,278,6.6,14.3,56,0.00,,,0.00,186.00,VWS V14.01,2013-01-22 19:43:00,
2013-01-22 13:45:00,11.8,-0.9,30.44,West,263,12.1,14.3,56,0.00,,,0.00,169.00,VWS V14.01,2013-01-22 19:45:00,
2013-01-22 13:46:00,11.7,-1.3,30.44,WSW,253,12.1,13.2,55,0.00,,,0.00,239.00,VWS V14.01,2013-01-22 19:46:00,
2013-01-22 13:48:00,11.6,-1.0,30.44,West,277,5.5,6.6,56,0.00,,,0.00,290.00,VWS V14.01,2013-01-22 19:48:00,
2013-01-22 13:51:00,11.8,-0.9,30.44,NW,310,15.4,15.4,56,0.00,,,0.00,323.00,VWS V14.01,2013-01-22 19:51:00,
2013-01-22 13:52:00,12.0,-0.7,30.44,West,275,4.4,6.6,56,0.00,,,0.00,302.00,VWS V14.01,2013-01-22 19:52:00,
2013-01-22 13:53:00,12.0,-0.7,30.44,West,271,9.9,13.2,56,0.00,,,0.00,338.00,VWS V14.01,2013-01-22 19:53:00,
2013-01-22 13:56:00,12.2,-0.5,30.44,WSW,258,7.7,12.1,56,0.00,,,0.00,271.00,VWS V14.01,2013-01-22 19:56:00,
2013-01-22 13:57:00,12.2,-0.5,30.44,West,275,7.7,12.1,56,0.00,,,0.00,271.00,VWS V14.01,2013-01-22 19:57:00,
2013-01-22 13:58:00,12.2,-0.9,30.44,West,264,14.3,14.3,55,0.00,,,0.00,292.00,VWS V14.01,2013-01-22 19:58:00,
2013-01-22 14:02:00,12.6,-0.5,30.44,West,274,15.4,15.4,55,0.00,,,0.00,357.00,VWS V14.01,2013-01-22 20:02:00,
2013-01-22 14:03:00,12.6,-0.9,30.44,WNW,297,8.8,8.8,54,0.00,,,0.00,315.00,VWS V14.01,2013-01-22 20:03:00,
2013-01-22 14:04:00,12.5,-0.6,30.44,West,266,13.2,17.6,55,0.00,,,0.00,292.00,VWS V14.01,2013-01-22 20:04:00,
2013-01-22 14:07:00,12.3,-0.8,30.44,WNW,303,16.5,16.5,55,0.00,,,0.00,299.00,VWS V14.01,2013-01-22 20:07:00,
2013-01-22 14:08:00,12.2,-0.9,30.44,West,268,13.2,13.2,55,0.00,,,0.00,327.00,VWS V14.01,2013-01-22 20:08:00,
2013-01-22 14:09:00,12.0,-1.1,30.44,West,264,12.1,12.1,55,0.00,,,0.00,336.00,VWS V14.01,2013-01-22 20:09:00,
2013-01-22 14:12:00,11.8,-1.2,30.43,West,276,8.8,16.5,55,0.00,,,0.00,394.00,VWS V14.01,2013-01-22 20:12:00,
2013-01-22 14:14:00,12.1,-1.0,30.43,West,272,12.1,16.5,55,0.00,,,0.00,355.00,VWS V14.01,2013-01-22 20:14:00,
2013-01-22 14:15:00,12.5,-0.2,30.43,WNW,286,19.8,19.8,56,0.00,,,0.00,264.00,VWS V14.01,2013-01-22 20:15:00,
2013-01-22 14:17:00,12.4,-0.7,30.43,WNW,300,11.0,11.0,55,0.00,,,0.00,271.00,VWS V14.01,2013-01-22 20:17:00,
2013-01-22 14:20:00,12.4,-0.7,30.43,West,270,14.3,14.3,55,0.00,,,0.00,306.00,VWS V14.01,2013-01-22 20:20:00,
2013-01-22 14:21:00,12.4,-0.7,30.43,West,273,13.2,14.3,55,0.00,,,0.00,258.00,VWS V14.01,2013-01-22 20:21:00,
2013-01-22 14:23:00,12.3,-1.2,30.44,WNW,289,7.7,14.3,54,0.00,,,0.00,260.00,VWS V14.01,2013-01-22 20:23:00,
2013-01-22 14:26:00,12.4,-1.1,30.44,NW,307,13.2,13.2,54,0.00,,,0.00,323.00,VWS V14.01,2013-01-22 20:26:00,
2013-01-22 14:27:00,12.4,-1.1,30.44,WNW,288,8.8,13.2,54,0.00,,,0.00,323.00,VWS V14.01,2013-01-22 20:27:00,
2013-01-22 14:28:00,12.5,-0.6,30.43,West,278,14.3,15.4,55,0.00,,,0.00,257.00,VWS V14.01,2013-01-22 20:28:00,
2013-01-22 14:31:00,12.3,-1.2,30.43,WNW,283,9.9,12.1,54,0.00,,,0.00,281.00,VWS V14.01,2013-01-22 20:31:00,
2013-01-22 14:33:00,12.2,-1.3,30.43,West,272,8.8,8.8,54,0.00,,,0.00,269.00,VWS V14.01,2013-01-22 20:33:00,
2013-01-22 14:36:00,12.3,-0.8,30.44,West,268,8.8,11.0,55,0.00,,,0.00,297.00,VWS V14.01,2013-01-22 20:36:00,
2013-01-22 14:37:00,12.4,-0.7,30.43,WNW,292,14.3,20.9,55,0.00,,,0.00,271.00,VWS V14.01,2013-01-22 20:37:00,
2013-01-22 14:38:00,12.3,-0.8,30.44,NW,309,12.1,18.7,55,0.00,,,0.00,327.00,VWS V14.01,2013-01-22 20:38:00,
2013-01-22 14:40:00,12.5,-0.6,30.44,West,278,12.1,12.1,55,0.00,,,0.00,264.00,VWS V14.01,2013-01-22 20:40:00,
2013-01-22 14:42:00,12.6,-0.5,30.44,West,273,4.4,9.9,55,0.00,,,0.00,236.00,VWS V14.01,2013-01-22 20:42:00,
2013-01-22 14:44:00,12.6,-0.5,30.43,WNW,293,7.7,14.3,55,0.00,,,0.00,151.00,VWS V14.01,2013-01-22 20:44:00,
2013-01-22 14:46:00,12.6,-0.5,30.43,West,274,9.9,16.5,55,0.00,,,0.00,158.00,VWS V14.01,2013-01-22 20:46:00,
2013-01-22 14:47:00,12.6,-0.5,30.43,WNW,293,5.5,9.9,55,0.00,,,0.00,158.00,VWS V14.01,2013-01-22 20:47:00,
2013-01-22 14:48:00,12.6,-0.5,30.43,West,278,6.6,11.0,55,0.00,,,0.00,176.00,VWS V14.01,2013-01-22 20:48:00,
2013-01-22 14:49:00,12.6,-0.5,30.43,West,261,7.7,8.8,55,0.00,,,0.00,174.00,VWS V14.01,2013-01-22 20:49:00,
2013-01-22 14:52:00,13.0,0.3,30.43,West,269,11.0,11.0,56,0.00,,,0.00,151.00,VWS V14.01,2013-01-22 20:52:00,
2013-01-22 14:53:00,13.0,0.3,30.43,West,270,8.8,11.0,56,0.00,,,0.00,146.00,VWS V14.01,2013-01-22 20:53:00,
2013-01-22 14:55:00,12.8,-0.3,30.43,WNW,290,9.9,12.1,55,0.00,,,0.00,135.00,VWS V14.01,2013-01-22 20:55:00,
2013-01-22 14:57:00,12.6,-0.5,30.43,West,275,11.0,16.5,55,0.00,,,0.00,139.00,VWS V14.01,2013-01-22 20:57:00,
2013-01-22 14:58:00,12.6,-0.5,30.43,West,263,9.9,16.5,55,0.00,,,0.00,141.00,VWS V14.01,2013-01-22 20:58:00,
2013-01-22 15:01:00,12.6,-0.5,30.43,West,271,12.1,12.1,55,0.00,,,0.00,132.00,VWS V14.01,2013-01-22 21:01:00,
2013-01-22 15:03:00,12.7,-0.4,30.43,NW,322,7.7,15.4,55,0.00,,,0.00,130.00,VWS V14.01,2013-01-22 21:03:00,
2013-01-22 15:04:00,12.7,-0.4,30.43,WNW,283,9.9,13.2,55,0.00,,,0.00,123.00,VWS V14.01,2013-01-22 21:04:00,
2013-01-22 15:08:00,12.4,-0.7,30.43,WNW,289,5.5,14.3,55,0.00,,,0.00,105.00,VWS V14.01,2013-01-22 21:08:00,
2013-01-22 15:09:00,12.3,-0.8,30.43,WSW,243,12.1,17.6,55,0.00,,,0.00,100.00,VWS V14.01,2013-01-22 21:09:00,
2013-01-22 15:13:00,12.2,-0.5,30.43,WSW,258,7.7,15.4,56,0.00,,,0.00,109.00,VWS V14.01,2013-01-22 21:13:00,
2013-01-22 15:15:00,12.3,-0.4,30.43,West,275,11.0,13.2,56,0.00,,,0.00,121.00,VWS V14.01,2013-01-22 21:15:00,
2013-01-22 15:18:00,12.4,-0.3,30.43,West,276,12.1,12.1,56,0.00,,,0.00,109.00,VWS V14.01,2013-01-22 21:18:00,
2013-01-22 15:19:00,12.5,-0.2,30.43,West,274,8.8,13.2,56,0.00,,,0.00,107.00,VWS V14.01,2013-01-22 21:19:00,
2013-01-22 15:23:00,12.5,-0.2,30.43,WNW,287,8.8,15.4,56,0.00,,,0.00,100.00,VWS V14.01,2013-01-22 21:23:00,
2013-01-22 15:24:00,12.6,-0.1,30.43,West,280,14.3,14.3,56,0.00,,,0.00,98.00,VWS V14.01,2013-01-22 21:24:00,
2013-01-22 15:28:00,12.5,-0.2,30.43,NNW,328,7.7,8.8,56,0.00,,,0.00,104.00,VWS V14.01,2013-01-22 21:28:00,
2013-01-22 15:29:00,12.5,-0.2,30.43,West,264,5.5,8.8,56,0.00,,,0.00,104.00,VWS V14.01,2013-01-22 21:29:00,
2013-01-22 15:30:00,12.6,-0.1,30.43,NW,316,12.1,12.1,56,0.00,,,0.00,104.00,VWS V14.01,2013-01-22 21:30:00,
2013-01-22 15:31:00,12.6,-0.1,30.43,WNW,285,9.9,13.2,56,0.00,,,0.00,90.00,VWS V14.01,2013-01-22 21:31:00,
2013-01-22 15:34:00,12.7,0.0,30.43,WNW,302,6.6,18.7,56,0.00,,,0.00,105.00,VWS V14.01,2013-01-22 21:34:00,
2013-01-22 15:35:00,12.7,0.0,30.43,WNW,300,16.5,16.5,56,0.00,,,0.00,97.00,VWS V14.01,2013-01-22 21:35:00,
2013-01-22 15:37:00,12.8,0.1,30.43,WSW,252,11.0,12.1,56,0.00,,,0.00,105.00,VWS V14.01,2013-01-22 21:37:00,
2013-01-22 15:39:00,12.8,0.1,30.43,WSW,239,8.8,14.3,56,0.00,,,0.00,100.00,VWS V14.01,2013-01-22 21:39:00,
2013-01-22 15:40:00,12.8,0.1,30.43,WSW,255,14.3,14.3,56,0.00,,,0.00,98.00,VWS V14.01,2013-01-22 21:40:00,
2013-01-22 15:42:00,12.8,0.1,30.43,West,268,11.0,13.2,56,0.00,,,0.00,91.00,VWS V14.01,2013-01-22 21:42:00,
2013-01-22 15:44:00,12.8,0.1,30.43,West,270,9.9,9.9,56,0.00,,,0.00,79.00,VWS V14.01,2013-01-22 21:44:00,
2013-01-22 15:47:00,12.7,0.0,30.42,West,279,9.9,15.4,56,0.00,,,0.00,83.00,VWS V14.01,2013-01-22 21:47:00,
2013-01-22 15:48:00,12.7,0.0,30.42,WNW,292,8.8,9.9,56,0.00,,,0.00,81.00,VWS V14.01,2013-01-22 21:48:00,
2013-01-22 15:51:00,12.6,-0.1,30.43,West,266,16.5,16.5,56,0.00,,,0.00,69.00,VWS V14.01,2013-01-22 21:51:00,
2013-01-22 15:53:00,12.6,-0.1,30.43,WNW,285,9.9,12.1,56,0.00,,,0.00,62.00,VWS V14.01,2013-01-22 21:53:00,
2013-01-22 15:54:00,12.5,-0.2,30.43,West,270,8.8,13.2,56,0.00,,,0.00,60.00,VWS V14.01,2013-01-22 21:54:00,
2013-01-22 15:57:00,12.6,0.3,30.43,NW,308,8.8,8.8,57,0.00,,,0.00,54.00,VWS V14.01,2013-01-22 21:57:00,
2013-01-22 15:58:00,12.6,0.3,30.43,WNW,285,11.0,13.2,57,0.00,,,0.00,47.00,VWS V14.01,2013-01-22 21:58:00,
2013-01-22 15:59:00,12.5,0.2,30.43,WNW,296,6.6,6.6,57,0.00,,,0.00,46.00,VWS V14.01,2013-01-22 21:59:00,
2013-01-22 16:03:00,12.4,0.1,30.43,WNW,296,5.5,11.0,57,0.00,,,0.00,35.00,VWS V14.01,2013-01-22 22:03:00,
2013-01-22 16:04:00,12.4,0.1,30.43,West,278,6.6,11.0,57,0.00,,,0.00,35.00,VWS V14.01,2013-01-22 22:04:00,
2013-01-22 16:08:00,12.4,0.1,30.42,WNW,286,12.1,12.1,57,0.00,,,0.00,37.00,VWS V14.01,2013-01-22 22:08:00,
2013-01-22 16:09:00,12.4,0.1,30.42,WNW,284,6.6,12.1,57,0.00,,,0.00,35.00,VWS V14.01,2013-01-22 22:09:00,
2013-01-22 16:13:00,12.3,0.0,30.42,WNW,299,5.5,7.7,57,0.00,,,0.00,33.00,VWS V14.01,2013-01-22 22:13:00,
2013-01-22 16:14:00,12.3,0.0,30.42,West,262,7.7,7.7,57,0.00,,,0.00,33.00,VWS V14.01,2013-01-22 22:14:00,
2013-01-22 16:15:00,12.3,0.3,30.42,WNW,293,8.8,9.9,58,0.00,,,0.00,33.00,VWS V14.01,2013-01-22 22:15:00,
2013-01-22 16:18:00,12.3,0.3,30.42,West,263,11.0,13.2,58,0.00,,,0.00,32.00,VWS V14.01,2013-01-22 22:18:00,
2013-01-22 16:19:00,12.3,0.3,30.42,NNW,328,6.6,6.6,58,0.00,,,0.00,32.00,VWS V14.01,2013-01-22 22:19:00,
2013-01-22 16:20:00,12.3,0.3,30.42,West,264,9.9,13.2,58,0.00,,,0.00,32.00,VWS V14.01,2013-01-22 22:20:00,
2013-01-22 16:24:00,12.3,0.3,30.43,NW,308,7.7,13.2,58,0.00,,,0.00,28.00,VWS V14.01,2013-01-22 22:24:00,
2013-01-22 16:25:00,12.3,0.3,30.43,NW,312,9.9,9.9,58,0.00,,,0.00,26.00,VWS V14.01,2013-01-22 22:25:00,
2013-01-22 16:29:00,12.4,0.4,30.43,WNW,285,4.4,9.9,58,0.00,,,0.00,21.00,VWS V14.01,2013-01-22 22:29:00,
2013-01-22 16:30:00,12.4,0.4,30.43,WNW,295,4.4,7.7,58,0.00,,,0.00,21.00,VWS V14.01,2013-01-22 22:30:00,
2013-01-22 16:31:00,12.4,0.4,30.43,WNW,284,11.0,13.2,58,0.00,,,0.00,19.00,VWS V14.01,2013-01-22 22:31:00,
2013-01-22 16:34:00,12.3,0.3,30.43,WNW,285,4.4,8.8,58,0.00,,,0.00,16.00,VWS V14.01,2013-01-22 22:34:00,
2013-01-22 16:35:00,12.3,0.0,30.43,NW,316,8.8,12.1,57,0.00,,,0.00,14.00,VWS V14.01,2013-01-22 22:35:00,
2013-01-22 16:36:00,12.3,0.0,30.43,WNW,295,8.8,14.3,57,0.00,,,0.00,14.00,VWS V14.01,2013-01-22 22:36:00,
2013-01-22 16:39:00,12.2,0.3,30.43,West,277,7.7,8.8,58,0.00,,,0.00,11.00,VWS V14.01,2013-01-22 22:39:00,
2013-01-22 16:40:00,12.2,-0.1,30.43,West,279,5.5,9.9,57,0.00,,,0.00,9.00,VWS V14.01,2013-01-22 22:40:00,
2013-01-22 16:41:00,12.2,-0.1,30.43,WNW,301,5.5,9.9,57,0.00,,,0.00,9.00,VWS V14.01,2013-01-22 22:41:00,
2013-01-22 16:42:00,12.2,0.3,30.43,WNW,286,12.1,13.2,58,0.00,,,0.00,7.00,VWS V14.01,2013-01-22 22:42:00,
2013-01-22 16:44:00,12.2,0.3,30.43,West,268,5.5,7.7,58,0.00,,,0.00,5.00,VWS V14.01,2013-01-22 22:44:00,
2013-01-22 16:45:00,12.2,0.3,30.43,NW,326,8.8,8.8,58,0.00,,,0.00,5.00,VWS V14.01,2013-01-22 22:45:00,
2013-01-22 16:47:00,12.2,0.3,30.43,West,270,9.9,13.2,58,0.00,,,0.00,0.00,VWS V14.01,2013-01-22 22:47:00,
2013-01-22 16:49:00,12.3,0.3,30.42,WNW,293,6.6,8.8,58,0.00,,,0.00,0.00,VWS V14.01,2013-01-22 22:49:00,
2013-01-22 16:52:00,12.2,0.3,30.43,NNW,330,14.3,14.3,58,0.00,,,0.00,0.00,VWS V14.01,2013-01-22 22:52:00,
2013-01-22 16:53:00,12.2,0.3,30.43,NW,310,12.1,14.3,58,0.00,,,0.00,0.00,VWS V14.01,2013-01-22 22:53:00,
2013-01-22 16:54:00,12.2,-0.1,30.43,West,273,4.4,7.7,57,0.00,,,0.00,0.00,VWS V14.01,2013-01-22 22:54:00,
2013-01-22 16:57:00,12.1,0.2,30.43,WNW,286,7.7,11.0,58,0.00,,,0.00,0.00,VWS V14.01,2013-01-22 22:57:00,
2013-01-22 16:58:00,12.1,0.2,30.43,WNW,287,7.7,12.1,58,0.00,,,0.00,0.00,VWS V14.01,2013-01-22 22:58:00,
2013-01-22 17:00:00,12.1,0.2,30.42,WNW,297,7.7,12.1,58,0.00,,,0.00,0.00,VWS V14.01,2013-01-22 23:00:00,
2013-01-22 17:02:00,12.1,0.2,30.42,West,272,6.6,7.7,58,0.00,,,0.00,0.00,VWS V14.01,2013-01-22 23:02:00,
2013-01-22 17:03:00,12.1,0.2,30.42,WNW,282,6.6,6.6,58,0.00,,,0.00,0.00,VWS V14.01,2013-01-22 23:03:00,
2013-01-22 17:05:00,12.1,0.2,30.42,WNW,293,6.6,9.9,58,0.00,,,0.00,0.00,VWS V14.01,2013-01-22 23:05:00,
2013-01-22 17:08:00,12.1,0.2,30.43,WNW,300,5.5,7.7,58,0.00,,,0.00,0.00,VWS V14.01,2013-01-22 23:08:00,
2013-01-22 17:10:00,12.2,0.3,30.43,WNW,295,6.6,8.8,58,0.00,,,0.00,0.00,VWS V14.01,2013-01-22 23:10:00,
2013-01-22 17:11:00,12.2,0.6,30.43,West,281,5.5,7.7,59,0.00,,,0.00,0.00,VWS V14.01,2013-01-22 23:11:00,
2013-01-22 17:13:00,12.2,0.6,30.43,WNW,282,5.5,11.0,59,0.00,,,0.00,0.00,VWS V14.01,2013-01-22 23:13:00,
2013-01-22 17:15:00,12.2,0.6,30.42,NW,308,7.7,7.7,59,0.00,,,0.00,0.00,VWS V14.01,2013-01-22 23:15:00,
2013-01-22 17:16:00,12.2,0.6,30.42,WNW,289,12.1,12.1,59,0.00,,,0.00,0.00,VWS V14.01,2013-01-22 23:16:00,
2013-01-22 17:17:00,12.2,0.6,30.42,West,276,4.4,12.1,59,0.00,,,0.00,0.00,VWS V14.01,2013-01-22 23:17:00,
2013-01-22 17:18:00,12.2,0.6,30.42,WNW,292,5.5,5.5,59,0.00,,,0.00,0.00,VWS V14.01,2013-01-22 23:18:00,
2013-01-22 17:20:00,12.1,0.5,30.42,West,265,5.5,7.7,59,0.00,,,0.00,0.00,VWS V14.01,2013-01-22 23:20:00,
2013-01-22 17:21:00,12.1,0.5,30.42,NW,307,6.6,9.9,59,0.00,,,0.00,0.00,VWS V14.01,2013-01-22 23:21:00,
2013-01-22 17:22:00,12.2,0.6,30.42,WNW,291,11.0,12.1,59,0.00,,,0.00,0.00,VWS V14.01,2013-01-22 23:22:00,
2013-01-22 17:23:00,12.2,0.6,30.42,WNW,301,13.2,13.2,59,0.00,,,0.00,0.00,VWS V14.01,2013-01-22 23:23:00,
2013-01-22 17:25:00,12.2,0.6,30.42,NW,313,11.0,11.0,59,0.00,,,0.00,0.00,VWS V14.01,2013-01-22 23:25:00,
2013-01-22 17:26:00,12.2,0.3,30.42,WNW,291,7.7,12.1,58,0.00,,,0.00,0.00,VWS V14.01,2013-01-22 23:26:00,
2013-01-22 17:27:00,12.2,0.3,30.42,WNW,303,6.6,9.9,58,0.00,,,0.00,0.00,VWS V14.01,2013-01-22 23:27:00,
2013-01-22 17:28:00,12.2,0.3,30.42,West,263,9.9,9.9,58,0.00,,,0.00,0.00,VWS V14.01,2013-01-22 23:28:00,
2013-01-22 17:32:00,12.2,0.6,30.42,West,268,7.7,9.9,59,0.00,,,0.00,0.00,VWS V14.01,2013-01-22 23:32:00,
2013-01-22 17:34:00,12.2,0.6,30.42,WNW,283,7.7,8.8,59,0.00,,,0.00,0.00,VWS V14.01,2013-01-22 23:34:00,
2013-01-22 17:37:00,12.2,0.6,30.42,West,280,9.9,9.9,59,0.00,,,0.00,0.00,VWS V14.01,2013-01-22 23:37:00,
2013-01-22 17:38:00,12.2,0.6,30.42,West,276,6.6,9.9,59,0.00,,,0.00,0.00,VWS V14.01,2013-01-22 23:38:00,
2013-01-22 17:39:00,12.2,0.6,30.42,NW,310,4.4,8.8,59,0.00,,,0.00,0.00,VWS V14.01,2013-01-22 23:39:00,
2013-01-22 17:40:00,12.2,0.6,30.42,WNW,290,5.5,13.2,59,0.00,,,0.00,0.00,VWS V14.01,2013-01-22 23:40:00,
2013-01-22 17:42:00,12.1,0.5,30.42,WNW,285,8.8,9.9,59,0.00,,,0.00,0.00,VWS V14.01,2013-01-22 23:42:00,
2013-01-22 17:43:00,12.2,0.6,30.42,NW,326,8.8,13.2,59,0.00,,,0.00,0.00,VWS V14.01,2013-01-22 23:43:00,
2013-01-22 17:45:00,12.1,0.2,30.42,NW,305,8.8,8.8,58,0.00,,,0.00,0.00,VWS V14.01,2013-01-22 23:45:00,
2013-01-22 17:48:00,12.1,0.5,30.42,West,280,4.4,4.4,59,0.00,,,0.00,0.00,VWS V14.01,2013-01-22 23:48:00,
2013-01-22 17:50:00,12.0,0.4,30.43,West,276,3.3,3.3,59,0.00,,,0.00,0.00,VWS V14.01,2013-01-22 23:50:00,
2013-01-22 17:51:00,12.0,0.4,30.43,WNW,289,6.6,6.6,59,0.00,,,0.00,0.00,VWS V14.01,2013-01-22 23:51:00,
2013-01-22 17:53:00,12.0,0.4,30.43,West,270,5.5,8.8,59,0.00,,,0.00,0.00,VWS V14.01,2013-01-22 23:53:00,
2013-01-22 17:54:00,11.9,0.3,30.42,WNW,299,4.4,5.5,59,0.00,,,0.00,0.00,VWS V14.01,2013-01-22 23:54:00,
2013-01-22 17:55:00,12.0,0.8,30.42,WNW,301,5.5,9.9,60,0.00,,,0.00,0.00,VWS V14.01,2013-01-22 23:55:00,
2013-01-22 17:56:00,12.0,0.8,30.42,West,278,4.4,7.7,60,0.00,,,0.00,0.00,VWS V14.01,2013-01-22 23:56:00,
2013-01-22 17:59:00,12.0,0.8,30.42,West,271,6.6,9.9,60,0.00,,,0.00,0.00,VWS V14.01,2013-01-22 23:59:00,
2013-01-22 18:00:00,12.0,0.8,30.42,West,260,7.7,9.9,60,0.00,,,0.00,0.00,VWS V14.01,2013-01-23 00:00:00,
2013-01-22 18:01:00,12.0,0.8,30.42,WNW,297,5.5,9.9,60,0.00,,,0.00,0.00,VWS V14.01,2013-01-23 00:01:00,
2013-01-22 18:05:00,12.0,0.8,30.42,WNW,290,8.8,8.8,60,0.00,,,0.00,0.00,VWS V14.01,2013-01-23 00:05:00,
2013-01-22 18:06:00,12.0,0.8,30.42,West,278,7.7,8.8,60,0.00,,,0.00,0.00,VWS V14.01,2013-01-23 00:06:00,
2013-01-22 18:07:00,12.0,0.8,30.42,WSW,256,5.5,8.8,60,0.00,,,0.00,0.00,VWS V14.01,2013-01-23 00:07:00,
2013-01-22 18:11:00,12.1,0.9,30.42,West,267,11.0,11.0,60,0.00,,,0.00,0.00,VWS V14.01,2013-01-23 00:11:00,
2013-01-22 18:12:00,12.1,0.9,30.42,West,278,5.5,11.0,60,0.00,,,0.00,0.00,VWS V14.01,2013-01-23 00:12:00,
2013-01-22 18:13:00,12.1,1.2,30.42,West,264,6.6,7.7,61,0.00,,,0.00,0.00,VWS V14.01,2013-01-23 00:13:00,
2013-01-22 18:16:00,12.0,1.1,30.42,WSW,258,7.7,7.7,61,0.00,,,0.00,0.00,VWS V14.01,2013-01-23 00:16:00,
2013-01-22 18:17:00,12.0,0.8,30.42,West,274,5.5,7.7,60,0.00,,,0.00,0.00,VWS V14.01,2013-01-23 00:17:00,
2013-01-22 18:18:00,12.0,0.8,30.42,WNW,293,8.8,8.8,60,0.00,,,0.00,0.00,VWS V14.01,2013-01-23 00:18:00,
2013-01-22 18:22:00,12.0,1.1,30.42,West,274,4.4,7.7,61,0.00,,,0.00,0.00,VWS V14.01,2013-01-23 00:22:00,
2013-01-22 18:23:00,12.0,1.1,30.42,West,276,4.4,7.7,61,0.00,,,0.00,0.00,VWS V14.01,2013-01-23 00:23:00,
2013-01-22 18:24:00,12.0,1.1,30.42,West,278,8.8,9.9,61,0.00,,,0.00,0.00,VWS V14.01,2013-01-23 00:24:00,
2013-01-22 18:27:00,12.0,1.1,30.43,West,270,6.6,8.8,61,0.00,,,0.00,0.00,VWS V14.01,2013-01-23 00:27:00,
2013-01-22 18:28:00,12.1,1.2,30.43,West,276,7.7,11.0,61,0.00,,,0.00,0.00,VWS V14.01,2013-01-23 00:28:00,
2013-01-22 18:31:00,12.1,1.2,30.43,NW,304,8.8,8.8,61,0.00,,,0.00,0.00,VWS V14.01,2013-01-23 00:31:00,
2013-01-22 18:32:00,12.2,1.3,30.43,WNW,285,11.0,11.0,61,0.00,,,0.00,0.00,VWS V14.01,2013-01-23 00:32:00,
2013-01-22 18:33:00,12.2,1.3,30.43,West,280,8.8,8.8,61,0.00,,,0.00,0.00,VWS V14.01,2013-01-23 00:33:00,
2013-01-22 18:34:00,12.2,1.3,30.43,WSW,255,5.5,9.9,61,0.00,,,0.00,0.00,VWS V14.01,2013-01-23 00:34:00,
2013-01-22 18:37:00,12.2,1.3,30.43,West,270,4.4,9.9,61,0.00,,,0.00,0.00,VWS V14.01,2013-01-23 00:37:00,
2013-01-22 18:39:00,12.2,1.3,30.43,West,262,4.4,8.8,61,0.00,,,0.00,0.00,VWS V14.01,2013-01-23 00:39:00,
2013-01-22 18:40:00,12.2,1.3,30.43,West,277,4.4,7.7,61,0.00,,,0.00,0.00,VWS V14.01,2013-01-23 00:40:00,
2013-01-22 18:42:00,12.2,1.3,30.42,West,274,3.3,3.3,61,0.00,,,0.00,0.00,VWS V14.01,2013-01-23 00:42:00,
2013-01-22 18:45:00,12.2,1.3,30.42,WSW,251,6.6,11.0,61,0.00,,,0.00,0.00,VWS V14.01,2013-01-23 00:45:00,
2013-01-22 18:46:00,12.2,1.3,30.42,West,265,7.7,8.8,61,0.00,,,0.00,0.00,VWS V14.01,2013-01-23 00:46:00,
2013-01-22 18:48:00,12.2,1.3,30.42,West,267,11.0,11.0,61,0.00,,,0.00,0.00,VWS V14.01,2013-01-23 00:48:00,
2013-01-22 18:50:00,12.2,1.3,30.42,West,264,6.6,12.1,61,0.00,,,0.00,0.00,VWS V14.01,2013-01-23 00:50:00,
2013-01-22 18:52:00,12.2,1.3,30.42,WNW,286,8.8,8.8,61,0.00,,,0.00,0.00,VWS V14.01,2013-01-23 00:52:00,
2013-01-22 18:53:00,12.2,1.3,30.42,West,271,6.6,6.6,61,0.00,,,0.00,0.00,VWS V14.01,2013-01-23 00:53:00,
2013-01-22 18:54:00,12.2,1.3,30.42,WSW,246,6.6,6.6,61,0.00,,,0.00,0.00,VWS V14.01,2013-01-23 00:54:00,
2013-01-22 18:55:00,12.2,1.7,30.42,West,278,4.4,6.6,62,0.00,,,0.00,0.00,VWS V14.01,2013-01-23 00:55:00,
2013-01-22 18:58:00,12.2,1.7,30.42,West,264,8.8,12.1,62,0.00,,,0.00,0.00,VWS V14.01,2013-01-23 00:58:00,
2013-01-22 18:59:00,12.2,1.7,30.42,WNW,291,5.5,8.8,62,0.00,,,0.00,0.00,VWS V14.01,2013-01-23 00:59:00,
2013-01-22 19:01:00,12.1,1.6,30.42,West,263,7.7,11.0,62,0.00,,,0.00,0.00,VWS V14.01,2013-01-23 01:01:00,
2013-01-22 19:03:00,12.1,1.6,30.42,West,272,5.5,11.0,62,0.00,,,0.00,0.00,VWS V14.01,2013-01-23 01:03:00,
2013-01-22 19:05:00,12.1,1.6,30.42,West,275,4.4,8.8,62,0.00,,,0.00,0.00,VWS V14.01,2013-01-23 01:05:00,
2013-01-22 19:06:00,12.1,1.6,30.42,West,265,13.2,13.2,62,0.00,,,0.00,0.00,VWS V14.01,2013-01-23 01:06:00,
2013-01-22 19:07:00,12.1,1.6,30.42,WNW,293,5.5,7.7,62,0.00,,,0.00,0.00,VWS V14.01,2013-01-23 01:07:00,
2013-01-22 19:08:00,12.1,1.6,30.42,West,276,9.9,9.9,62,0.00,,,0.00,0.00,VWS V14.01,2013-01-23 01:08:00,
2013-01-22 19:10:00,12.1,1.6,30.42,West,265,7.7,8.8,62,0.00,,,0.00,0.00,VWS V14.01,2013-01-23 01:10:00,
2013-01-22 19:11:00,12.1,1.6,30.42,WNW,289,11.0,11.0,62,0.00,,,0.00,0.00,VWS V14.01,2013-01-23 01:11:00,
2013-01-22 19:13:00,12.1,1.6,30.42,West,271,6.6,11.0,62,0.00,,,0.00,0.00,VWS V14.01,2013-01-23 01:13:00,
2013-01-22 19:14:00,12.1,1.6,30.42,West,275,7.7,11.0,62,0.00,,,0.00,0.00,VWS V14.01,2013-01-23 01:14:00,
2013-01-22 19:15:00,12.1,1.6,30.42,West,269,7.7,12.1,62,0.00,,,0.00,0.00,VWS V14.01,2013-01-23 01:15:00,
2013-01-22 19:17:00,12.1,1.6,30.42,WNW,287,6.6,9.9,62,0.00,,,0.00,0.00,VWS V14.01,2013-01-23 01:17:00,
2013-01-22 19:19:00,12.0,1.8,30.42,West,272,8.8,11.0,63,0.00,,,0.00,0.00,VWS V14.01,2013-01-23 01:19:00,
2013-01-22 19:20:00,12.0,1.8,30.42,West,270,7.7,8.8,63,0.00,,,0.00,0.00,VWS V14.01,2013-01-23 01:20:00,
2013-01-22 19:23:00,12.0,1.8,30.42,WNW,287,5.5,9.9,63,0.00,,,0.00,0.00,VWS V14.01,2013-01-23 01:23:00,
2013-01-22 19:24:00,12.0,1.8,30.42,WNW,284,4.4,8.8,63,0.00,,,0.00,0.00,VWS V14.01,2013-01-23 01:24:00,
2013-01-22 19:25:00,12.0,1.8,30.42,WNW,286,6.6,8.8,63,0.00,,,0.00,0.00,VWS V14.01,2013-01-23 01:25:00,
2013-01-22 19:26:00,12.0,1.8,30.42,WNW,285,9.9,11.0,63,0.00,,,0.00,0.00,VWS V14.01,2013-01-23 01:26:00,
2013-01-22 19:28:00,11.9,1.7,30.42,West,272,4.4,7.7,63,0.00,,,0.00,0.00,VWS V14.01,2013-01-23 01:28:00,
2013-01-22 19:30:00,11.9,1.7,30.42,NW,317,5.5,11.0,63,0.00,,,0.00,0.00,VWS V14.01,2013-01-23 01:30:00,
2013-01-22 19:31:00,11.9,1.7,30.42,WNW,282,6.6,8.8,63,0.00,,,0.00,0.00,VWS V14.01,2013-01-23 01:31:00,
2013-01-22 19:33:00,11.9,1.7,30.42,West,267,8.8,9.9,63,0.00,,,0.00,0.00,VWS V14.01,2013-01-23 01:33:00,
2013-01-22 19:34:00,11.9,1.7,30.41,West,272,5.5,7.7,63,0.00,,,0.00,0.00,VWS V14.01,2013-01-23 01:34:00,
2013-01-22 19:35:00,11.9,1.7,30.41,WSW,248,6.6,8.8,63,0.00,,,0.00,0.00,VWS V14.01,2013-01-23 01:35:00,
2013-01-22 19:37:00,11.9,1.7,30.42,West,277,7.7,7.7,63,0.00,,,0.00,0.00,VWS V14.01,2013-01-23 01:37:00,
2013-01-22 19:38:00,11.9,1.7,30.42,West,272,5.5,5.5,63,0.00,,,0.00,0.00,VWS V14.01,2013-01-23 01:38:00,
2013-01-22 19:39:00,11.9,1.7,30.42,West,269,9.9,9.9,63,0.00,,,0.00,0.00,VWS V14.01,2013-01-23 01:39:00,
2013-01-22 19:40:00,11.9,1.7,30.42,West,276,11.0,11.0,63,0.00,,,0.00,0.00,VWS V14.01,2013-01-23 01:40:00,
2013-01-22 19:44:00,11.9,1.7,30.42,WNW,293,4.4,6.6,63,0.00,,,0.00,0.00,VWS V14.01,2013-01-23 01:44:00,
2013-01-22 19:45:00,11.9,1.7,30.42,West,269,4.4,8.8,63,0.00,,,0.00,0.00,VWS V14.01,2013-01-23 01:45:00,
2013-01-22 19:49:00,11.9,1.7,30.42,West,279,5.5,11.0,63,0.00,,,0.00,0.00,VWS V14.01,2013-01-23 01:49:00,
2013-01-22 19:50:00,11.9,1.7,30.42,WNW,299,5.5,7.7,63,0.00,,,0.00,0.00,VWS V14.01,2013-01-23 01:50:00,
2013-01-22 19:54:00,11.9,2.1,30.42,West,274,8.8,9.9,64,0.00,,,0.00,0.00,VWS V14.01,2013-01-23 01:54:00,
2013-01-22 19:55:00,11.8,2.0,30.42,West,262,9.9,9.9,64,0.00,,,0.00,0.00,VWS V14.01,2013-01-23 01:55:00,
2013-01-22 19:56:00,11.9,2.1,30.42,West,274,7.7,9.9,64,0.00,,,0.00,0.00,VWS V14.01,2013-01-23 01:56:00,
2013-01-22 20:00:00,11.8,1.6,30.42,WNW,285,12.1,12.1,63,0.00,,,0.00,0.00,VWS V14.01,2013-01-23 02:00:00,
2013-01-22 20:01:00,11.8,2.0,30.42,West,259,8.8,9.9,64,0.00,,,0.00,0.00,VWS V14.01,2013-01-23 02:01:00,
2013-01-22 20:05:00,11.8,2.0,30.43,West,278,3.3,9.9,64,0.00,,,0.00,0.00,VWS V14.01,2013-01-23 02:05:00,
2013-01-22 20:06:00,11.8,2.0,30.43,WNW,303,5.5,7.7,64,0.00,,,0.00,0.00,VWS V14.01,2013-01-23 02:06:00,
2013-01-22 20:10:00,11.7,1.9,30.43,WNW,293,4.4,5.5,64,0.00,,,0.00,0.00,VWS V14.01,2013-01-23 02:10:00,
2013-01-22 20:12:00,11.7,1.9,30.43,West,276,9.9,9.9,64,0.00,,,0.00,0.00,VWS V14.01,2013-01-23 02:12:00,
2013-01-22 20:15:00,11.7,1.9,30.43,West,276,7.7,7.7,64,0.00,,,0.00,0.00,VWS V14.01,2013-01-23 02:15:00,
2013-01-22 20:16:00,11.7,1.9,30.43,West,272,5.5,9.9,64,0.00,,,0.00,0.00,VWS V14.01,2013-01-23 02:16:00,
2013-01-22 20:17:00,11.7,1.9,30.43,West,276,5.5,8.8,64,0.00,,,0.00,0.00,VWS V14.01,2013-01-23 02:17:00,
2013-01-22 20:18:00,11.7,1.9,30.43,West,280,2.2,8.8,64,0.00,,,0.00,0.00,VWS V14.01,2013-01-23 02:18:00,
2013-01-22 20:21:00,11.7,1.9,30.43,West,270,4.4,8.8,64,0.00,,,0.00,0.00,VWS V14.01,2013-01-23 02:21:00,
2013-01-22 20:23:00,11.7,1.9,30.43,West,266,7.7,7.7,64,0.00,,,0.00,0.00,VWS V14.01,2013-01-23 02:23:00,
2013-01-22 20:24:00,11.7,1.9,30.42,West,277,3.3,3.3,64,0.00,,,0.00,0.00,VWS V14.01,2013-01-23 02:24:00,
2013-01-22 20:26:00,11.7,2.2,30.43,West,260,3.3,6.6,65,0.00,,,0.00,0.00,VWS V14.01,2013-01-23 02:26:00,
2013-01-22 20:28:00,11.7,2.2,30.42,West,264,2.2,4.4,65,0.00,,,0.00,0.00,VWS V14.01,2013-01-23 02:28:00,
2013-01-22 20:29:00,11.7,2.2,30.42,West,262,5.5,8.8,65,0.00,,,0.00,0.00,VWS V14.01,2013-01-23 02:29:00,
2013-01-22 20:32:00,11.7,1.9,30.42,NW,305,5.5,5.5,64,0.00,,,0.00,0.00,VWS V14.01,2013-01-23 02:32:00,
2013-01-22 20:33:00,11.7,1.9,30.42,West,270,3.3,6.6,64,0.00,,,0.00,0.00,VWS V14.01,2013-01-23 02:33:00,
2013-01-22 20:34:00,11.7,1.9,30.42,West,280,5.5,6.6,64,0.00,,,0.00,0.00,VWS V14.01,2013-01-23 02:34:00,
2013-01-22 20:35:00,11.7,1.9,30.42,WNW,287,6.6,6.6,64,0.00,,,0.00,0.00,VWS V14.01,2013-01-23 02:35:00,
2013-01-22 20:38:00,11.7,2.2,30.43,WNW,287,7.7,7.7,65,0.00,,,0.00,0.00,VWS V14.01,2013-01-23 02:38:00,
2013-01-22 20:39:00,11.7,2.2,30.43,West,264,8.8,8.8,65,0.00,,,0.00,0.00,VWS V14.01,2013-01-23 02:39:00,
2013-01-22 20:41:00,11.7,2.2,30.43,WNW,289,8.8,8.8,65,0.00,,,0.00,0.00,VWS V14.01,2013-01-23 02:41:00,
2013-01-22 20:43:00,11.7,1.9,30.43,West,265,6.6,6.6,64,0.00,,,0.00,0.00,VWS V14.01,2013-01-23 02:43:00,
2013-01-22 20:44:00,11.7,2.2,30.43,West,271,5.5,8.8,65,0.00,,,0.00,0.00,VWS V14.01,2013-01-23 02:44:00,
2013-01-22 20:45:00,11.7,2.2,30.43,West,272,4.4,6.6,65,0.00,,,0.00,0.00,VWS V14.01,2013-01-23 02:45:00,
2013-01-22 20:48:00,11.7,2.2,30.43,West,279,9.9,12.1,65,0.00,,,0.00,0.00,VWS V14.01,2013-01-23 02:48:00,
2013-01-22 20:49:00,11.7,2.2,30.43,WNW,291,5.5,7.7,65,0.00,,,0.00,0.00,VWS V14.01,2013-01-23 02:49:00,
2013-01-22 20:50:00,11.7,2.2,30.43,West,276,4.4,6.6,65,0.00,,,0.00,0.00,VWS V14.01,2013-01-23 02:50:00,
2013-01-22 20:53:00,11.7,2.2,30.43,WNW,301,5.5,11.0,65,0.00,,,0.00,0.00,VWS V14.01,2013-01-23 02:53:00,
2013-01-22 20:55:00,11.7,2.2,30.43,WNW,292,4.4,7.7,65,0.00,,,0.00,0.00,VWS V14.01,2013-01-23 02:55:00,
2013-01-22 20:58:00,11.7,2.2,30.43,WNW,287,7.7,7.7,65,0.00,,,0.00,0.00,VWS V14.01,2013-01-23 02:58:00,
2013-01-22 20:59:00,11.7,2.2,30.43,West,268,6.6,7.7,65,0.00,,,0.00,0.00,VWS V14.01,2013-01-23 02:59:00,
2013-01-22 21:00:00,11.7,2.2,30.43,West,278,2.2,3.3,65,0.00,,,0.00,0.00,VWS V14.01,2013-01-23 03:00:00,
2013-01-22 21:03:00,11.6,2.1,30.43,WNW,293,8.8,8.8,65,0.00,,,0.00,0.00,VWS V14.01,2013-01-23 03:03:00,
2013-01-22 21:04:00,11.7,2.2,30.43,NNW,331,4.4,11.0,65,0.00,,,0.00,0.00,VWS V14.01,2013-01-23 03:04:00,
2013-01-22 21:06:00,11.7,2.2,30.44,NW,324,7.7,8.8,65,0.00,,,0.00,0.00,VWS V14.01,2013-01-23 03:06:00,
2013-01-22 21:08:00,11.6,2.1,30.44,WNW,291,4.4,4.4,65,0.00,,,0.00,0.00,VWS V14.01,2013-01-23 03:08:00,
2013-01-22 21:09:00,11.6,2.1,30.43,West,261,3.3,4.4,65,0.00,,,0.00,0.00,VWS V14.01,2013-01-23 03:09:00,
2013-01-22 21:12:00,11.6,2.1,30.43,NW,310,6.6,11.0,65,0.00,,,0.00,0.00,VWS V14.01,2013-01-23 03:12:00,
2013-01-22 21:14:00,11.6,2.1,30.43,NW,307,8.8,8.8,65,0.00,,,0.00,0.00,VWS V14.01,2013-01-23 03:14:00,
2013-01-22 21:17:00,11.6,2.1,30.43,West,274,8.8,8.8,65,0.00,,,0.00,0.00,VWS V14.01,2013-01-23 03:17:00,
2013-01-22 21:18:00,11.6,2.1,30.43,WNW,285,6.6,8.8,65,0.00,,,0.00,0.00,VWS V14.01,2013-01-23 03:18:00,
2013-01-22 21:19:00,11.6,2.1,30.43,WNW,286,6.6,7.7,65,0.00,,,0.00,0.00,VWS V14.01,2013-01-23 03:19:00,
2013-01-22 21:20:00,11.6,2.1,30.43,West,272,6.6,7.7,65,0.00,,,0.00,0.00,VWS V14.01,2013-01-23 03:20:00,
2013-01-22 21:23:00,11.6,2.1,30.44,WNW,298,8.8,8.8,65,0.00,,,0.00,0.00,VWS V14.01,2013-01-23 03:23:00,
2013-01-22 21:24:00,11.7,2.2,30.44,WNW,289,2.2,4.4,65,0.00,,,0.00,0.00,VWS V14.01,2013-01-23 03:24:00,
2013-01-22 21:26:00,11.7,2.2,30.44,WNW,293,7.7,8.8,65,0.00,,,0.00,0.00,VWS V14.01,2013-01-23 03:26:00,
2013-01-22 21:28:00,11.7,2.2,30.44,West,281,5.5,8.8,65,0.00,,,0.00,0.00,VWS V14.01,2013-01-23 03:28:00,
2013-01-22 21:30:00,11.7,2.2,30.44,West,278,6.6,7.7,65,0.00,,,0.00,0.00,VWS V14.01,2013-01-23 03:30:00,
2013-01-22 21:32:00,11.7,2.2,30.44,NW,306,5.5,6.6,65,0.00,,,0.00,0.00,VWS V14.01,2013-01-23 03:32:00,
2013-01-22 21:33:00,11.7,2.2,30.44,WNW,303,6.6,6.6,65,0.00,,,0.00,0.00,VWS V14.01,2013-01-23 03:33:00,
2013-01-22 21:34:00,11.7,2.2,30.44,West,280,7.7,8.8,65,0.00,,,0.00,0.00,VWS V14.01,2013-01-23 03:34:00,
2013-01-22 21:35:00,11.7,2.2,30.44,WNW,295,4.4,6.6,65,0.00,,,0.00,0.00,VWS V14.01,2013-01-23 03:35:00,
2013-01-22 21:37:00,11.7,2.2,30.44,West,276,5.5,5.5,65,0.00,,,0.00,0.00,VWS V14.01,2013-01-23 03:37:00,
2013-01-22 21:38:00,11.7,2.2,30.44,WNW,288,8.8,8.8,65,0.00,,,0.00,0.00,VWS V14.01,2013-01-23 03:38:00,
2013-01-22 21:39:00,11.7,2.2,30.44,WNW,303,6.6,6.6,65,0.00,,,0.00,0.00,VWS V14.01,2013-01-23 03:39:00,
2013-01-22 21:40:00,11.7,2.2,30.44,WNW,299,4.4,6.6,65,0.00,,,0.00,0.00,VWS V14.01,2013-01-23 03:40:00,
2013-01-22 21:42:00,11.7,2.2,30.44,NW,304,9.9,9.9,65,0.00,,,0.00,0.00,VWS V14.01,2013-01-23 03:42:00,
2013-01-22 21:44:00,11.7,2.2,30.44,WNW,291,5.5,7.7,65,0.00,,,0.00,0.00,VWS V14.01,2013-01-23 03:44:00,
2013-01-22 21:46:00,11.7,2.2,30.44,WNW,283,6.6,7.7,65,0.00,,,0.00,0.00,VWS V14.01,2013-01-23 03:46:00,
2013-01-22 21:47:00,11.7,2.2,30.44,West,273,4.4,8.8,65,0.00,,,0.00,0.00,VWS V14.01,2013-01-23 03:47:00,
2013-01-22 21:49:00,11.8,2.3,30.44,West,276,9.9,9.9,65,0.00,,,0.00,0.00,VWS V14.01,2013-01-23 03:49:00,
2013-01-22 21:51:00,11.8,2.3,30.44,WNW,285,6.6,7.7,65,0.00,,,0.00,0.00,VWS V14.01,2013-01-23 03:51:00,
2013-01-22 21:52:00,11.8,2.3,30.44,WNW,302,3.3,5.5,65,0.00,,,0.00,0.00,VWS V14.01,2013-01-23 03:52:00,
2013-01-22 21:54:00,11.8,2.3,30.44,WNW,285,4.4,7.7,65,0.00,,,0.00,0.00,VWS V14.01,2013-01-23 03:54:00,
2013-01-22 21:56:00,11.8,2.3,30.44,WNW,285,6.6,6.6,65,0.00,,,0.00,0.00,VWS V14.01,2013-01-23 03:56:00,
2013-01-22 21:57:00,11.8,2.0,30.43,West,266,6.6,9.9,64,0.00,,,0.00,0.00,VWS V14.01,2013-01-23 03:57:00,
2013-01-22 21:59:00,11.8,2.3,30.44,West,278,4.4,4.4,65,0.00,,,0.00,0.00,VWS V14.01,2013-01-23 03:59:00,
2013-01-22 22:00:00,11.8,2.0,30.44,West,278,4.4,11.0,64,0.00,,,0.00,0.00,VWS V14.01,2013-01-23 04:00:00,
2013-01-22 22:01:00,11.8,2.0,30.44,NW,305,5.5,7.7,64,0.00,,,0.00,0.00,VWS V14.01,2013-01-23 04:01:00,
2013-01-22 22:04:00,11.8,2.0,30.44,WNW,292,5.5,8.8,64,0.00,,,0.00,0.00,VWS V14.01,2013-01-23 04:04:00,
2013-01-22 22:06:00,11.8,2.0,30.44,WNW,288,4.4,9.9,64,0.00,,,0.00,0.00,VWS V14.01,2013-01-23 04:06:00,
2013-01-22 22:08:00,11.8,2.0,30.43,West,262,3.3,4.4,64,0.00,,,0.00,0.00,VWS V14.01,2013-01-23 04:08:00,
2013-01-22 22:10:00,11.9,2.1,30.43,West,279,5.5,7.7,64,0.00,,,0.00,0.00,VWS V14.01,2013-01-23 04:10:00,
2013-01-22 22:12:00,11.9,2.1,30.43,NW,308,7.7,11.0,64,0.00,,,0.00,0.00,VWS V14.01,2013-01-23 04:12:00,
2013-01-22 22:13:00,11.8,1.6,30.43,WNW,301,7.7,8.8,63,0.00,,,0.00,0.00,VWS V14.01,2013-01-23 04:13:00,
2013-01-22 22:15:00,11.9,1.7,30.43,West,267,6.6,6.6,63,0.00,,,0.00,0.00,VWS V14.01,2013-01-23 04:15:00,
2013-01-22 22:17:00,11.9,1.7,30.43,NW,318,7.7,8.8,63,0.00,,,0.00,0.00,VWS V14.01,2013-01-23 04:17:00,
2013-01-22 22:19:00,11.9,1.7,30.43,NW,324,11.0,11.0,63,0.00,,,0.00,0.00,VWS V14.01,2013-01-23 04:19:00,
2013-01-22 22:21:00,11.9,1.7,30.43,West,272,3.3,8.8,63,0.00,,,0.00,0.00,VWS V14.01,2013-01-23 04:21:00,
2013-01-22 22:22:00,11.9,1.7,30.43,West,264,5.5,8.8,63,0.00,,,0.00,0.00,VWS V14.01,2013-01-23 04:22:00,
2013-01-22 22:24:00,11.9,2.1,30.43,WNW,289,6.6,8.8,64,0.00,,,0.00,0.00,VWS V14.01,2013-01-23 04:24:00,
2013-01-22 22:26:00,11.9,1.7,30.43,WNW,283,4.4,5.5,63,0.00,,,0.00,0.00,VWS V14.01,2013-01-23 04:26:00,
2013-01-22 22:27:00,11.9,2.1,30.43,WNW,287,3.3,5.5,64,0.00,,,0.00,0.00,VWS V14.01,2013-01-23 04:27:00,
2013-01-22 22:28:00,12.0,2.2,30.43,West,278,4.4,8.8,64,0.00,,,0.00,0.00,VWS V14.01,2013-01-23 04:28:00,
2013-01-22 22:29:00,12.0,2.2,30.43,West,265,9.9,9.9,64,0.00,,,0.00,0.00,VWS V14.01,2013-01-23 04:29:00,
2013-01-22 22:32:00,12.0,1.8,30.43,West,278,3.3,8.8,63,0.00,,,0.00,0.00,VWS V14.01,2013-01-23 04:32:00,
2013-01-22 22:33:00,12.0,1.8,30.43,West,278,4.4,6.6,63,0.00,,,0.00,0.00,VWS V14.01,2013-01-23 04:33:00,
2013-01-22 22:34:00,12.0,1.8,30.43,West,266,7.7,7.7,63,0.00,,,0.00,0.00,VWS V14.01,2013-01-23 04:34:00,
2013-01-22 22:37:00,12.0,1.8,30.43,West,272,6.6,8.8,63,0.00,,,0.00,0.00,VWS V14.01,2013-01-23 04:37:00,
2013-01-22 22:38:00,12.0,1.8,30.43,West,276,6.6,8.8,63,0.00,,,0.00,0.00,VWS V14.01,2013-01-23 04:38:00,
2013-01-22 22:39:00,12.0,1.8,30.43,West,276,3.3,6.6,63,0.00,,,0.00,0.00,VWS V14.01,2013-01-23 04:39:00,
2013-01-22 22:43:00,12.1,1.9,30.44,West,270,8.8,8.8,63,0.00,,,0.00,0.00,VWS V14.01,2013-01-23 04:43:00,
2013-01-22 22:44:00,12.1,1.9,30.44,West,260,7.7,9.9,63,0.00,,,0.00,0.00,VWS V14.01,2013-01-23 04:44:00,
2013-01-22 22:45:00,12.1,1.9,30.44,West,277,6.6,8.8,63,0.00,,,0.00,0.00,VWS V14.01,2013-01-23 04:45:00,
2013-01-22 22:48:00,12.1,1.9,30.44,WNW,286,6.6,8.8,63,0.00,,,0.00,0.00,VWS V14.01,2013-01-23 04:48:00,
2013-01-22 22:49:00,12.0,1.8,30.44,WNW,286,6.6,6.6,63,0.00,,,0.00,0.00,VWS V14.01,2013-01-23 04:49:00,
2013-01-22 22:50:00,12.1,1.9,30.44,WNW,291,4.4,6.6,63,0.00,,,0.00,0.00,VWS V14.01,2013-01-23 04:50:00,
2013-01-22 22:53:00,12.1,1.9,30.44,West,271,4.4,8.8,63,0.00,,,0.00,0.00,VWS V14.01,2013-01-23 04:53:00,
2013-01-22 22:55:00,12.1,1.9,30.44,West,281,4.4,7.7,63,0.00,,,0.00,0.00,VWS V14.01,2013-01-23 04:55:00,
2013-01-22 22:58:00,12.1,1.9,30.44,West,266,9.9,9.9,63,0.00,,,0.00,0.00,VWS V14.01,2013-01-23 04:58:00,
2013-01-22 23:02:00,12.1,1.9,30.44,West,277,3.3,5.5,63,0.00,,,0.00,0.00,VWS V14.01,2013-01-23 05:02:00,
2013-01-22 23:03:00,12.1,1.9,30.44,WNW,287,5.5,6.6,63,0.00,,,0.00,0.00,VWS V14.01,2013-01-23 05:03:00,
2013-01-22 23:07:00,12.0,1.8,30.44,WNW,293,5.5,8.8,63,0.00,,,0.00,0.00,VWS V14.01,2013-01-23 05:07:00,
2013-01-22 23:08:00,12.0,1.8,30.44,West,280,4.4,8.8,63,0.00,,,0.00,0.00,VWS V14.01,2013-01-23 05:08:00,
2013-01-22 23:09:00,12.0,1.8,30.44,West,276,2.2,6.6,63,0.00,,,0.00,0.00,VWS V14.01,2013-01-23 05:09:00,
2013-01-22 23:12:00,12.0,2.2,30.44,West,278,9.9,9.9,64,0.00,,,0.00,0.00,VWS V14.01,2013-01-23 05:12:00,
2013-01-22 23:13:00,12.0,2.2,30.44,West,278,3.3,6.6,64,0.00,,,0.00,0.00,VWS V14.01,2013-01-23 05:13:00,
2013-01-22 23:14:00,12.0,2.2,30.44,West,278,4.4,6.6,64,0.00,,,0.00,0.00,VWS V14.01,2013-01-23 05:14:00,
2013-01-22 23:17:00,12.0,1.8,30.44,WNW,285,7.7,7.7,63,0.00,,,0.00,0.00,VWS V14.01,2013-01-23 05:17:00,
2013-01-22 23:18:00,12.0,1.8,30.44,WNW,282,5.5,6.6,63,0.00,,,0.00,0.00,VWS V14.01,2013-01-23 05:18:00,
2013-01-22 23:19:00,12.0,1.8,30.44,West,263,7.7,7.7,63,0.00,,,0.00,0.00,VWS V14.01,2013-01-23 05:19:00,
2013-01-22 23:24:00,12.0,1.8,30.44,WNW,295,4.4,6.6,63,0.00,,,0.00,0.00,VWS V14.01,2013-01-23 05:24:00,
2013-01-22 23:25:00,12.0,1.8,30.44,WNW,300,6.6,6.6,63,0.00,,,0.00,0.00,VWS V14.01,2013-01-23 05:25:00,
2013-01-22 23:29:00,12.0,1.8,30.44,WNW,288,6.6,8.8,63,0.00,,,0.00,0.00,VWS V14.01,2013-01-23 05:29:00,
2013-01-22 23:31:00,12.1,1.9,30.44,West,280,8.8,8.8,63,0.00,,,0.00,0.00,VWS V14.01,2013-01-23 05:31:00,
2013-01-22 23:34:00,12.1,1.9,30.44,WNW,283,4.4,6.6,63,0.00,,,0.00,0.00,VWS V14.01,2013-01-23 05:34:00,
2013-01-22 23:35:00,12.1,1.9,30.44,WNW,284,3.3,6.6,63,0.00,,,0.00,0.00,VWS V14.01,2013-01-23 05:35:00,
2013-01-22 23:36:00,12.0,1.8,30.44,NW,307,4.4,8.8,63,0.00,,,0.00,0.00,VWS V14.01,2013-01-23 05:36:00,
2013-01-22 23:37:00,12.0,1.8,30.44,WNW,291,7.7,7.7,63,0.00,,,0.00,0.00,VWS V14.01,2013-01-23 05:37:00,
2013-01-22 23:40:00,12.1,1.9,30.44,West,280,6.6,7.7,63,0.00,,,0.00,0.00,VWS V14.01,2013-01-23 05:40:00,
2013-01-22 23:41:00,12.0,1.8,30.44,NW,307,5.5,7.7,63,0.00,,,0.00,0.00,VWS V14.01,2013-01-23 05:41:00,
2013-01-22 23:44:00,12.1,1.9,30.44,West,269,7.7,8.8,63,0.00,,,0.00,0.00,VWS V14.01,2013-01-23 05:44:00,
2013-01-22 23:46:00,12.1,1.9,30.44,NW,314,5.5,8.8,63,0.00,,,0.00,0.00,VWS V14.01,2013-01-23 05:46:00,
2013-01-22 23:47:00,12.1,1.9,30.44,West,278,3.3,5.5,63,0.00,,,0.00,0.00,VWS V14.01,2013-01-23 05:47:00,
2013-01-22 23:49:00,12.2,2.4,30.44,West,277,2.2,5.5,64,0.00,,,0.00,0.00,VWS V14.01,2013-01-23 05:49:00,
2013-01-22 23:51:00,12.2,2.4,30.44,NW,308,7.7,8.8,64,0.00,,,0.00,0.00,VWS V14.01,2013-01-23 05:51:00,
2013-01-22 23:52:00,12.2,2.4,30.44,WNW,288,7.7,7.7,64,0.00,,,0.00,0.00,VWS V14.01,2013-01-23 05:52:00,
2013-01-22 23:56:00,12.1,2.3,30.44,WNW,289,3.3,4.4,64,0.00,,,0.00,0.00,VWS V14.01,2013-01-23 05:56:00,
2013-01-22 23:57:00,12.2,2.4,30.44,NW,316,6.6,6.6,64,0.00,,,0.00,0.00,VWS V14.01,2013-01-23 05:57:00,
2013-01-22 23:58:00,12.2,2.4,30.44,WNW,286,6.6,6.6,64,0.00,,,0.00,0.00,VWS V14.01,2013-01-23 05:58:00,
2013-01-22 23:59:00,12.1,2.3,30.44,WNW,293,4.4,4.4,64,0.00,,,0.00,0.00,VWS V14.01,2013-01-23 05:59:00,